Time,TemperatureF,DewpointF,PressureIn,WindDirection,WindDirectionDegrees,WindSpeedMPH,WindSpeedGustMPH,Humidity,HourlyPrecipIn,Conditions,Clouds,dailyrainin,SoftwareType,DateUTC
2013-08-15 00:00:00,81.2,76.3,29.98,ESE,106,1.0,1.0,85,0.00,,,0.04,Wunderground v.1.15,2013-08-15 04:00:00,
2013-08-15 00:01:00,81.2,76.3,29.98,ESE,105,1.0,1.0,85,0.00,,,0.04,Wunderground v.1.15,2013-08-15 04:01:00,
2013-08-15 00:02:00,81.2,76.3,29.98,ESE,105,1.0,1.0,85,0.00,,,0.00,Wunderground v.1.15,2013-08-15 04:02:00,
2013-08-15 00:03:00,81.1,76.2,29.98,East,91,1.0,1.0,85,0.00,,,0.00,Wunderground v.1.15,2013-08-15 04:03:00,
2013-08-15 00:04:00,81.1,76.2,29.98,NE,36,1.0,2.0,85,0.00,,,0.00,Wunderground v.1.15,2013-08-15 04:04:00,
2013-08-15 00:08:00,80.8,76.2,29.98,NE,47,1.0,3.0,86,0.00,,,0.00,Wunderground v.1.15,2013-08-15 04:08:00,
2013-08-15 00:09:00,80.8,76.2,29.98,ENE,65,1.0,3.0,86,0.00,,,0.00,Wunderground v.1.15,2013-08-15 04:09:00,
2013-08-15 01:50:00,78.8,74.9,29.98,East,97,6.0,6.0,88,0.00,,,0.00,Wunderground v.1.15,2013-08-15 05:50:00,
2013-08-15 01:51:00,78.8,74.9,29.98,ENE,71,5.0,6.0,88,0.00,,,0.00,Wunderground v.1.15,2013-08-15 05:51:00,
2013-08-15 01:52:00,78.8,74.9,29.98,East,86,5.0,6.0,88,0.00,,,0.00,Wunderground v.1.15,2013-08-15 05:52:00,
2013-08-15 01:56:00,78.7,74.8,29.97,East,91,3.0,6.0,88,0.00,,,0.00,Wunderground v.1.15,2013-08-15 05:56:00,
2013-08-15 01:57:00,78.8,74.9,29.97,ESE,108,3.0,6.0,88,0.00,,,0.00,Wunderground v.1.15,2013-08-15 05:57:00,
2013-08-15 01:58:00,78.7,74.5,29.97,ESE,115,3.0,6.0,87,0.00,,,0.00,Wunderground v.1.15,2013-08-15 05:58:00,
2013-08-15 02:01:00,78.6,74.4,29.98,SE,146,4.0,6.0,87,0.00,,,0.00,Wunderground v.1.15,2013-08-15 06:01:00,
2013-08-15 02:04:00,78.5,74.3,29.97,ESE,108,4.0,6.0,87,0.00,,,0.01,Wunderground v.1.15,2013-08-15 06:04:00,
2013-08-15 02:05:00,78.5,74.3,29.97,ESE,105,4.0,6.0,87,0.00,,,0.01,Wunderground v.1.15,2013-08-15 06:05:00,
2013-08-15 02:08:00,78.3,74.5,29.97,ESE,111,3.0,6.0,88,0.16,,,0.02,Wunderground v.1.15,2013-08-15 06:08:00,
2013-08-15 02:10:00,78.2,74.4,29.97,ESE,108,2.0,7.0,88,0.13,,,0.02,Wunderground v.1.15,2013-08-15 06:10:00,
2013-08-15 02:11:00,78.1,74.3,29.97,ENE,72,2.0,7.0,88,0.10,,,0.02,Wunderground v.1.15,2013-08-15 06:11:00,
2013-08-15 02:13:00,77.8,74.0,29.97,East,96,2.0,7.0,88,0.08,,,0.02,Wunderground v.1.15,2013-08-15 06:13:00,
2013-08-15 02:14:00,77.7,73.9,29.97,East,91,2.0,7.0,88,0.07,,,0.02,Wunderground v.1.15,2013-08-15 06:14:00,
2013-08-15 02:15:00,77.7,73.9,29.97,ESE,102,2.0,7.0,88,0.06,,,0.02,Wunderground v.1.15,2013-08-15 06:15:00,
2013-08-15 02:17:00,77.6,73.8,29.97,East,98,2.0,7.0,88,0.05,,,0.02,Wunderground v.1.15,2013-08-15 06:17:00,
2013-08-15 02:21:00,77.4,73.9,29.97,East,86,2.0,3.0,89,0.04,,,0.02,Wunderground v.1.15,2013-08-15 06:21:00,
2013-08-15 02:22:00,77.4,73.9,29.97,East,82,2.0,3.0,89,0.04,,,0.02,Wunderground v.1.15,2013-08-15 06:22:00,
2013-08-15 02:23:00,77.3,73.8,29.96,ENE,57,2.0,3.0,89,0.00,,,0.02,Wunderground v.1.15,2013-08-15 06:23:00,
2013-08-15 02:25:00,77.3,73.8,29.96,East,97,2.0,3.0,89,0.00,,,0.02,Wunderground v.1.15,2013-08-15 06:25:00,
2013-08-15 02:27:00,77.2,73.7,29.96,ENE,72,2.0,3.0,89,0.00,,,0.02,Wunderground v.1.15,2013-08-15 06:27:00,
2013-08-15 02:29:00,77.2,73.7,29.96,East,101,2.0,3.0,89,0.00,,,0.02,Wunderground v.1.15,2013-08-15 06:29:00,
2013-08-15 02:32:00,77.0,73.5,29.96,East,82,2.0,2.0,89,0.00,,,0.02,Wunderground v.1.15,2013-08-15 06:32:00,
2013-08-15 02:33:00,77.0,73.5,29.96,East,89,2.0,2.0,89,0.00,,,0.02,Wunderground v.1.15,2013-08-15 06:33:00,
2013-08-15 02:34:00,77.0,73.5,29.96,SE,124,2.0,2.0,89,0.00,,,0.02,Wunderground v.1.15,2013-08-15 06:34:00,
2013-08-15 02:37:00,76.9,73.4,29.96,East,86,2.0,3.0,89,0.00,,,0.02,Wunderground v.1.15,2013-08-15 06:37:00,
2013-08-15 02:38:00,76.9,73.4,29.96,ESE,103,2.0,4.0,89,0.00,,,0.02,Wunderground v.1.15,2013-08-15 06:38:00,
2013-08-15 02:40:00,76.7,73.2,29.96,ESE,109,2.0,2.0,89,0.00,,,0.02,Wunderground v.1.15,2013-08-15 06:40:00,
2013-08-15 02:43:00,76.5,72.7,29.96,ESE,112,3.0,6.0,88,0.00,,,0.02,Wunderground v.1.15,2013-08-15 06:43:00,
2013-08-15 02:44:00,76.5,72.7,29.96,ESE,115,3.0,6.0,88,0.00,,,0.02,Wunderground v.1.15,2013-08-15 06:44:00,
2013-08-15 02:45:00,76.5,72.7,29.96,SSE,148,3.0,6.0,88,0.00,,,0.02,Wunderground v.1.15,2013-08-15 06:45:00,
2013-08-15 02:46:00,76.5,72.7,29.96,SE,124,3.0,6.0,88,0.00,,,0.02,Wunderground v.1.15,2013-08-15 06:46:00,
2013-08-15 02:48:00,76.4,72.6,29.96,SE,138,4.0,6.0,88,0.00,,,0.02,Wunderground v.1.15,2013-08-15 06:48:00,
2013-08-15 02:49:00,76.4,72.6,29.95,East,98,4.0,6.0,88,0.00,,,0.02,Wunderground v.1.15,2013-08-15 06:49:00,
2013-08-15 02:52:00,76.3,72.5,29.95,SE,124,3.0,4.0,88,0.00,,,0.02,Wunderground v.1.15,2013-08-15 06:52:00,
2013-08-15 02:55:00,76.2,72.4,29.95,East,95,3.0,4.0,88,0.00,,,0.02,Wunderground v.1.15,2013-08-15 06:55:00,
2013-08-15 02:58:00,76.1,72.3,29.95,SE,126,3.0,4.0,88,0.00,,,0.02,Wunderground v.1.15,2013-08-15 06:58:00,
2013-08-15 02:59:00,76.1,72.3,29.95,East,86,3.0,4.0,88,0.00,,,0.02,Wunderground v.1.15,2013-08-15 06:59:00,
2013-08-15 03:02:00,76.0,72.5,29.95,ESE,122,3.0,3.0,89,0.00,,,0.02,Wunderground v.1.15,2013-08-15 07:02:00,
2013-08-15 03:03:00,75.9,72.4,29.95,ESE,109,3.0,3.0,89,0.00,,,0.02,Wunderground v.1.15,2013-08-15 07:03:00,
2013-08-15 03:04:00,75.9,72.4,29.95,SE,135,2.0,3.0,89,0.00,,,0.02,Wunderground v.1.15,2013-08-15 07:04:00,
2013-08-15 03:08:00,75.8,72.3,29.95,ESE,111,2.0,3.0,89,0.00,,,0.02,Wunderground v.1.15,2013-08-15 07:08:00,
2013-08-15 03:10:00,75.7,72.2,29.95,ESE,108,2.0,2.0,89,0.00,,,0.02,Wunderground v.1.15,2013-08-15 07:10:00,
2013-08-15 03:12:00,75.7,72.6,29.95,East,100,1.0,2.0,90,0.00,,,0.02,Wunderground v.1.15,2013-08-15 07:12:00,
2013-08-15 03:13:00,75.6,72.5,29.95,ESE,111,2.0,2.0,90,0.00,,,0.02,Wunderground v.1.15,2013-08-15 07:13:00,
2013-08-15 03:17:00,75.6,72.5,29.95,East,91,2.0,2.0,90,0.00,,,0.02,Wunderground v.1.15,2013-08-15 07:17:00,
2013-08-15 03:18:00,75.6,72.5,29.95,ENE,65,2.0,2.0,90,0.00,,,0.02,Wunderground v.1.15,2013-08-15 07:18:00,
2013-08-15 03:19:00,75.6,72.5,29.95,East,100,2.0,3.0,90,0.00,,,0.02,Wunderground v.1.15,2013-08-15 07:19:00,
2013-08-15 03:20:00,75.5,72.4,29.95,ESE,113,2.0,2.0,90,0.00,,,0.02,Wunderground v.1.15,2013-08-15 07:20:00,
2013-08-15 03:24:00,75.5,72.4,29.95,East,93,2.0,5.0,90,0.00,,,0.02,Wunderground v.1.15,2013-08-15 07:24:00,
2013-08-15 03:26:00,75.5,72.7,29.94,ESE,109,2.0,5.0,91,0.00,,,0.02,Wunderground v.1.15,2013-08-15 07:26:00,
2013-08-15 03:27:00,75.5,72.7,29.94,ENE,72,2.0,5.0,91,0.00,,,0.02,Wunderground v.1.15,2013-08-15 07:27:00,
2013-08-15 03:28:00,75.5,72.7,29.94,ESE,118,2.0,5.0,91,0.00,,,0.02,Wunderground v.1.15,2013-08-15 07:28:00,
2013-08-15 03:29:00,75.5,72.7,29.94,ESE,118,2.0,5.0,91,0.00,,,0.02,Wunderground v.1.15,2013-08-15 07:29:00,
2013-08-15 03:30:00,75.5,72.7,29.94,ESE,111,2.0,3.0,91,0.00,,,0.02,Wunderground v.1.15,2013-08-15 07:30:00,
2013-08-15 03:34:00,75.5,72.7,29.94,East,91,2.0,3.0,91,0.00,,,0.02,Wunderground v.1.15,2013-08-15 07:34:00,
2013-08-15 03:37:00,75.5,72.7,29.95,ESE,117,2.0,3.0,91,0.00,,,0.02,Wunderground v.1.15,2013-08-15 07:37:00,
2013-08-15 03:39:00,75.5,72.7,29.95,ESE,117,2.0,3.0,91,0.00,,,0.02,Wunderground v.1.15,2013-08-15 07:39:00,
2013-08-15 03:41:00,75.4,72.6,29.95,SE,137,2.0,3.0,91,0.00,,,0.02,Wunderground v.1.15,2013-08-15 07:41:00,
2013-08-15 03:42:00,75.4,72.6,29.95,ESE,109,2.0,3.0,91,0.00,,,0.02,Wunderground v.1.15,2013-08-15 07:42:00,
2013-08-15 03:46:00,75.3,72.5,29.95,SE,124,3.0,3.0,91,0.00,,,0.02,Wunderground v.1.15,2013-08-15 07:46:00,
2013-08-15 03:47:00,75.3,72.5,29.95,ESE,115,3.0,3.0,91,0.00,,,0.02,Wunderground v.1.15,2013-08-15 07:47:00,
2013-08-15 03:48:00,75.3,72.5,29.95,ESE,112,3.0,3.0,91,0.00,,,0.02,Wunderground v.1.15,2013-08-15 07:48:00,
2013-08-15 03:49:00,75.3,72.5,29.95,East,101,3.0,3.0,91,0.00,,,0.02,Wunderground v.1.15,2013-08-15 07:49:00,
2013-08-15 03:50:00,75.3,72.5,29.95,ESE,113,3.0,4.0,91,0.00,,,0.02,Wunderground v.1.15,2013-08-15 07:50:00,
2013-08-15 03:51:00,75.3,72.5,29.94,ESE,102,3.0,4.0,91,0.00,,,0.02,Wunderground v.1.15,2013-08-15 07:51:00,
2013-08-15 03:52:00,75.3,72.5,29.94,SE,144,3.0,4.0,91,0.00,,,0.02,Wunderground v.1.15,2013-08-15 07:52:00,
2013-08-15 03:54:00,75.3,72.5,29.94,SE,134,3.0,4.0,91,0.00,,,0.02,Wunderground v.1.15,2013-08-15 07:54:00,
2013-08-15 03:57:00,75.3,72.5,29.95,SE,128,3.0,4.0,91,0.00,,,0.02,Wunderground v.1.15,2013-08-15 07:57:00,
2013-08-15 03:58:00,75.2,72.4,29.95,ESE,110,3.0,4.0,91,0.00,,,0.02,Wunderground v.1.15,2013-08-15 07:58:00,
2013-08-15 03:59:00,75.3,72.5,29.94,ESE,105,3.0,4.0,91,0.00,,,0.02,Wunderground v.1.15,2013-08-15 07:59:00,
2013-08-15 04:01:00,75.3,72.5,29.94,SE,126,3.0,3.0,91,0.00,,,0.02,Wunderground v.1.15,2013-08-15 08:01:00,
2013-08-15 04:03:00,75.3,72.5,29.94,ESE,104,2.0,3.0,91,0.00,,,0.02,Wunderground v.1.15,2013-08-15 08:03:00,
2013-08-15 04:04:00,75.3,72.5,29.94,ESE,108,2.0,3.0,91,0.00,,,0.02,Wunderground v.1.15,2013-08-15 08:04:00,
2013-08-15 04:05:00,75.3,72.5,29.94,SE,135,2.0,3.0,91,0.00,,,0.02,Wunderground v.1.15,2013-08-15 08:05:00,
2013-08-15 04:06:00,75.3,72.5,29.94,ESE,117,2.0,3.0,91,0.00,,,0.02,Wunderground v.1.15,2013-08-15 08:06:00,
2013-08-15 04:09:00,75.3,72.5,29.94,ESE,108,2.0,3.0,91,0.00,,,0.02,Wunderground v.1.15,2013-08-15 08:09:00,
2013-08-15 04:11:00,75.3,72.5,29.94,ESE,105,2.0,2.0,91,0.00,,,0.02,Wunderground v.1.15,2013-08-15 08:11:00,
2013-08-15 04:15:00,75.3,72.5,29.94,ESE,117,2.0,2.0,91,0.00,,,0.02,Wunderground v.1.15,2013-08-15 08:15:00,
2013-08-15 04:16:00,75.3,72.5,29.94,ESE,117,2.0,2.0,91,0.00,,,0.02,Wunderground v.1.15,2013-08-15 08:16:00,
2013-08-15 04:17:00,75.3,72.5,29.94,ESE,117,1.0,2.0,91,0.00,,,0.02,Wunderground v.1.15,2013-08-15 08:17:00,
2013-08-15 04:21:00,75.3,72.5,29.94,ESE,113,1.0,2.0,91,0.00,,,0.02,Wunderground v.1.15,2013-08-15 08:21:00,
2013-08-15 04:22:00,75.3,72.5,29.94,ESE,104,1.0,2.0,91,0.00,,,0.02,Wunderground v.1.15,2013-08-15 08:22:00,
2013-08-15 04:27:00,75.2,72.4,29.94,SE,124,1.0,3.0,91,0.00,,,0.02,Wunderground v.1.15,2013-08-15 08:27:00,
2013-08-15 04:28:00,75.2,72.4,29.94,ESE,118,2.0,3.0,91,0.00,,,0.02,Wunderground v.1.15,2013-08-15 08:28:00,
2013-08-15 04:29:00,75.2,72.4,29.94,ESE,119,2.0,3.0,91,0.00,,,0.02,Wunderground v.1.15,2013-08-15 08:29:00,
2013-08-15 04:31:00,75.2,72.4,29.94,ESE,117,1.0,2.0,91,0.00,,,0.02,Wunderground v.1.15,2013-08-15 08:31:00,
2013-08-15 04:33:00,75.2,72.4,29.94,ESE,103,1.0,2.0,91,0.00,,,0.02,Wunderground v.1.15,2013-08-15 08:33:00,
2013-08-15 04:35:00,75.3,72.5,29.94,SE,124,1.0,3.0,91,0.00,,,0.02,Wunderground v.1.15,2013-08-15 08:35:00,
2013-08-15 04:36:00,75.2,72.4,29.94,SE,134,1.0,3.0,91,0.00,,,0.02,Wunderground v.1.15,2013-08-15 08:36:00,
2013-08-15 04:40:00,75.3,72.5,29.94,SE,128,2.0,2.0,91,0.00,,,0.02,Wunderground v.1.15,2013-08-15 08:40:00,
2013-08-15 04:41:00,75.3,72.5,29.94,ESE,114,2.0,2.0,91,0.00,,,0.02,Wunderground v.1.15,2013-08-15 08:41:00,
2013-08-15 04:43:00,75.3,72.5,29.94,SE,134,2.0,2.0,91,0.00,,,0.02,Wunderground v.1.15,2013-08-15 08:43:00,
2013-08-15 04:44:00,75.3,72.5,29.94,ESE,111,2.0,5.0,91,0.00,,,0.02,Wunderground v.1.15,2013-08-15 08:44:00,
2013-08-15 04:45:00,75.3,72.5,29.94,ESE,117,2.0,5.0,91,0.00,,,0.02,Wunderground v.1.15,2013-08-15 08:45:00,
2013-08-15 04:49:00,75.5,72.7,29.94,ESE,106,2.0,5.0,91,0.00,,,0.02,Wunderground v.1.15,2013-08-15 08:49:00,
2013-08-15 04:53:00,75.6,72.8,29.94,SE,139,3.0,3.0,91,0.00,,,0.02,Wunderground v.1.15,2013-08-15 08:53:00,
2013-08-15 04:54:00,75.6,72.8,29.94,ESE,103,3.0,3.0,91,0.00,,,0.02,Wunderground v.1.15,2013-08-15 08:54:00,
2013-08-15 04:56:00,75.7,72.9,29.94,ESE,118,3.0,3.0,91,0.00,,,0.02,Wunderground v.1.15,2013-08-15 08:56:00,
2013-08-15 04:59:00,75.7,72.9,29.94,ESE,105,3.0,5.0,91,0.00,,,0.02,Wunderground v.1.15,2013-08-15 08:59:00,
2013-08-15 05:00:00,75.7,72.9,29.94,ESE,111,3.0,3.0,91,0.00,,,0.02,Wunderground v.1.15,2013-08-15 09:00:00,
2013-08-15 05:01:00,75.8,73.0,29.94,ESE,115,3.0,3.0,91,0.00,,,0.02,Wunderground v.1.15,2013-08-15 09:01:00,
2013-08-15 05:02:00,75.8,73.0,29.94,SE,131,3.0,3.0,91,0.00,,,0.02,Wunderground v.1.15,2013-08-15 09:02:00,
2013-08-15 05:04:00,75.8,73.0,29.94,ESE,115,3.0,4.0,91,0.00,,,0.02,Wunderground v.1.15,2013-08-15 09:04:00,
2013-08-15 05:06:00,75.8,73.0,29.94,ESE,115,2.0,4.0,91,0.00,,,0.02,Wunderground v.1.15,2013-08-15 09:06:00,
2013-08-15 05:07:00,75.8,73.0,29.94,East,97,2.0,4.0,91,0.00,,,0.02,Wunderground v.1.15,2013-08-15 09:07:00,
2013-08-15 05:08:00,75.8,73.0,29.94,ESE,108,2.0,4.0,91,0.00,,,0.02,Wunderground v.1.15,2013-08-15 09:08:00,
2013-08-15 05:09:00,75.8,73.0,29.94,ESE,117,2.0,4.0,91,0.00,,,0.02,Wunderground v.1.15,2013-08-15 09:09:00,
2013-08-15 05:13:00,75.9,73.1,29.94,ESE,103,2.0,3.0,91,0.00,,,0.02,Wunderground v.1.15,2013-08-15 09:13:00,
2013-08-15 05:14:00,75.9,73.1,29.94,ESE,111,2.0,3.0,91,0.00,,,0.02,Wunderground v.1.15,2013-08-15 09:14:00,
2013-08-15 05:16:00,76.0,73.2,29.94,ESE,108,3.0,5.0,91,0.00,,,0.02,Wunderground v.1.15,2013-08-15 09:16:00,
2013-08-15 05:17:00,76.0,73.2,29.94,ESE,113,3.0,5.0,91,0.00,,,0.02,Wunderground v.1.15,2013-08-15 09:17:00,
2013-08-15 05:19:00,76.1,73.0,29.94,East,98,2.0,5.0,90,0.00,,,0.02,Wunderground v.1.15,2013-08-15 09:19:00,
2013-08-15 05:21:00,76.1,73.0,29.94,ESE,104,2.0,2.0,90,0.00,,,0.02,Wunderground v.1.15,2013-08-15 09:21:00,
2013-08-15 05:22:00,76.1,73.0,29.94,ESE,105,2.0,2.0,90,0.00,,,0.02,Wunderground v.1.15,2013-08-15 09:22:00,
2013-08-15 05:24:00,76.1,73.0,29.94,ESE,102,2.0,4.0,90,0.00,,,0.02,Wunderground v.1.15,2013-08-15 09:24:00,
2013-08-15 05:25:00,76.1,73.0,29.94,ESE,115,2.0,4.0,90,0.00,,,0.02,Wunderground v.1.15,2013-08-15 09:25:00,
2013-08-15 05:27:00,76.1,73.0,29.94,ESE,113,2.0,4.0,90,0.00,,,0.02,Wunderground v.1.15,2013-08-15 09:27:00,
2013-08-15 05:29:00,76.2,73.1,29.94,ESE,115,2.0,4.0,90,0.00,,,0.02,Wunderground v.1.15,2013-08-15 09:29:00,
2013-08-15 05:32:00,76.2,73.1,29.94,East,97,2.0,2.0,90,0.00,,,0.02,Wunderground v.1.15,2013-08-15 09:32:00,
2013-08-15 05:33:00,76.2,73.1,29.94,East,97,2.0,2.0,90,0.00,,,0.02,Wunderground v.1.15,2013-08-15 09:33:00,
2013-08-15 05:34:00,76.2,73.1,29.95,East,97,2.0,2.0,90,0.00,,,0.02,Wunderground v.1.15,2013-08-15 09:34:00,
2013-08-15 05:37:00,76.2,73.1,29.95,East,94,1.0,2.0,90,0.00,,,0.02,Wunderground v.1.15,2013-08-15 09:37:00,
2013-08-15 05:40:00,76.2,73.1,29.95,East,79,1.0,1.0,90,0.00,,,0.02,Wunderground v.1.15,2013-08-15 09:40:00,
2013-08-15 05:41:00,76.2,73.1,29.95,ENE,78,1.0,1.0,90,0.00,,,0.02,Wunderground v.1.15,2013-08-15 09:41:00,
2013-08-15 05:44:00,76.2,73.1,29.94,ENE,78,1.0,1.0,90,0.00,,,0.02,Wunderground v.1.15,2013-08-15 09:44:00,
2013-08-15 05:45:00,76.2,73.1,29.94,ENE,78,1.0,1.0,90,0.00,,,0.02,Wunderground v.1.15,2013-08-15 09:45:00,
2013-08-15 05:46:00,76.2,73.1,29.94,ENE,78,1.0,1.0,90,0.00,,,0.02,Wunderground v.1.15,2013-08-15 09:46:00,
2013-08-15 05:51:00,76.2,73.1,29.94,ENE,78,1.0,2.0,90,0.00,,,0.02,Wunderground v.1.15,2013-08-15 09:51:00,
2013-08-15 05:52:00,76.2,73.1,29.94,ENE,65,1.0,3.0,90,0.00,,,0.02,Wunderground v.1.15,2013-08-15 09:52:00,
2013-08-15 05:53:00,76.2,73.4,29.94,ENE,69,1.0,3.0,91,0.00,,,0.02,Wunderground v.1.15,2013-08-15 09:53:00,
2013-08-15 05:54:00,76.2,73.1,29.94,ENE,69,1.0,3.0,90,0.00,,,0.02,Wunderground v.1.15,2013-08-15 09:54:00,
2013-08-15 05:57:00,76.2,73.1,29.94,East,97,2.0,3.0,90,0.00,,,0.02,Wunderground v.1.15,2013-08-15 09:57:00,
2013-08-15 05:58:00,76.2,73.4,29.94,East,101,2.0,3.0,91,0.00,,,0.02,Wunderground v.1.15,2013-08-15 09:58:00,
2013-08-15 05:59:00,76.2,73.4,29.94,ESE,105,2.0,3.0,91,0.00,,,0.02,Wunderground v.1.15,2013-08-15 09:59:00,
2013-08-15 06:01:00,76.2,73.4,29.94,ESE,103,2.0,2.0,91,0.00,,,0.02,Wunderground v.1.15,2013-08-15 10:01:00,
2013-08-15 06:02:00,76.1,73.3,29.94,ESE,102,2.0,2.0,91,0.00,,,0.02,Wunderground v.1.15,2013-08-15 10:02:00,
2013-08-15 06:04:00,76.1,73.3,29.94,East,96,2.0,2.0,91,0.00,,,0.02,Wunderground v.1.15,2013-08-15 10:04:00,
2013-08-15 06:08:00,76.1,73.3,29.94,ESE,107,2.0,4.0,91,0.00,,,0.02,Wunderground v.1.15,2013-08-15 10:08:00,
2013-08-15 06:09:00,76.1,73.3,29.94,ESE,121,2.0,4.0,91,0.00,,,0.02,Wunderground v.1.15,2013-08-15 10:09:00,
2013-08-15 06:10:00,76.1,73.3,29.94,ESE,121,2.0,2.0,91,0.00,,,0.02,Wunderground v.1.15,2013-08-15 10:10:00,
2013-08-15 06:12:00,76.1,73.3,29.94,ESE,107,2.0,3.0,91,0.00,,,0.02,Wunderground v.1.15,2013-08-15 10:12:00,
2013-08-15 06:16:00,76.1,73.3,29.93,ESE,107,2.0,3.0,91,0.00,,,0.02,Wunderground v.1.15,2013-08-15 10:16:00,
2013-08-15 06:17:00,76.1,73.3,29.94,SE,129,2.0,3.0,91,0.00,,,0.02,Wunderground v.1.15,2013-08-15 10:17:00,
2013-08-15 06:18:00,76.1,73.3,29.94,SE,129,2.0,3.0,91,0.00,,,0.02,Wunderground v.1.15,2013-08-15 10:18:00,
2013-08-15 06:19:00,76.1,73.3,29.94,SE,130,2.0,3.0,91,0.00,,,0.02,Wunderground v.1.15,2013-08-15 10:19:00,
2013-08-15 06:20:00,76.1,73.3,29.94,SE,129,2.0,2.0,91,0.00,,,0.02,Wunderground v.1.15,2013-08-15 10:20:00,
2013-08-15 06:22:00,76.1,73.3,29.94,ESE,121,1.0,2.0,91,0.00,,,0.02,Wunderground v.1.15,2013-08-15 10:22:00,
2013-08-15 06:24:00,76.1,73.3,29.94,ESE,111,1.0,2.0,91,0.00,,,0.02,Wunderground v.1.15,2013-08-15 10:24:00,
2013-08-15 06:25:00,76.1,73.3,29.93,East,100,1.0,2.0,91,0.00,,,0.02,Wunderground v.1.15,2013-08-15 10:25:00,
2013-08-15 06:28:00,76.2,73.4,29.93,ESE,108,1.0,3.0,91,0.00,,,0.02,Wunderground v.1.15,2013-08-15 10:28:00,
2013-08-15 06:32:00,76.3,73.5,29.93,ESE,104,2.0,2.0,91,0.00,,,0.02,Wunderground v.1.15,2013-08-15 10:32:00,
2013-08-15 06:33:00,76.3,73.5,29.93,ESE,102,2.0,2.0,91,0.00,,,0.02,Wunderground v.1.15,2013-08-15 10:33:00,
2013-08-15 06:34:00,76.3,73.5,29.93,East,91,2.0,2.0,91,0.00,,,0.02,Wunderground v.1.15,2013-08-15 10:34:00,
2013-08-15 06:38:00,76.3,73.1,29.93,ESE,115,2.0,2.0,90,0.00,,,0.02,Wunderground v.1.15,2013-08-15 10:38:00,
2013-08-15 06:39:00,76.4,73.2,29.93,East,97,2.0,2.0,90,0.00,,,0.02,Wunderground v.1.15,2013-08-15 10:39:00,
2013-08-15 06:40:00,76.4,73.2,29.93,ESE,111,1.0,1.0,90,0.00,,,0.02,Wunderground v.1.15,2013-08-15 10:40:00,
2013-08-15 06:42:00,76.4,73.2,29.93,ESE,111,1.0,1.0,90,0.00,,,0.02,Wunderground v.1.15,2013-08-15 10:42:00,
2013-08-15 06:45:00,76.4,73.2,29.93,East,89,1.0,2.0,90,0.00,,,0.02,Wunderground v.1.15,2013-08-15 10:45:00,
2013-08-15 06:47:00,76.5,73.3,29.93,ESE,115,1.0,2.0,90,0.00,,,0.02,Wunderground v.1.15,2013-08-15 10:47:00,
2013-08-15 06:49:00,76.5,73.3,29.93,ESE,115,1.0,2.0,90,0.00,,,0.02,Wunderground v.1.15,2013-08-15 10:49:00,
2013-08-15 06:50:00,76.5,73.3,29.93,SE,127,1.0,1.0,90,0.00,,,0.02,Wunderground v.1.15,2013-08-15 10:50:00,
2013-08-15 06:53:00,76.5,73.3,29.93,SE,142,1.0,3.0,90,0.00,,,0.02,Wunderground v.1.15,2013-08-15 10:53:00,
2013-08-15 06:55:00,76.6,73.4,29.93,ESE,114,2.0,3.0,90,0.00,,,0.02,Wunderground v.1.15,2013-08-15 10:55:00,
2013-08-15 06:56:00,76.6,73.4,29.93,ESE,115,2.0,3.0,90,0.00,,,0.02,Wunderground v.1.15,2013-08-15 10:56:00,
2013-08-15 06:58:00,76.6,73.4,29.93,East,100,2.0,3.0,90,0.00,,,0.02,Wunderground v.1.15,2013-08-15 10:58:00,
2013-08-15 06:59:00,76.6,73.4,29.93,East,84,2.0,3.0,90,0.00,,,0.02,Wunderground v.1.15,2013-08-15 10:59:00,
2013-08-15 07:01:00,76.6,73.4,29.93,East,99,2.0,2.0,90,0.00,,,0.02,Wunderground v.1.15,2013-08-15 11:01:00,
2013-08-15 07:04:00,76.6,73.4,29.93,East,95,1.0,3.0,90,0.00,,,0.02,Wunderground v.1.15,2013-08-15 11:04:00,
2013-08-15 07:05:00,76.6,73.4,29.93,East,93,1.0,3.0,90,0.00,,,0.02,Wunderground v.1.15,2013-08-15 11:05:00,
2013-08-15 07:07:00,76.7,73.5,29.93,ESE,113,1.0,3.0,90,0.00,,,0.02,Wunderground v.1.15,2013-08-15 11:07:00,
2013-08-15 07:08:00,76.7,73.5,29.93,ESE,113,1.0,3.0,90,0.00,,,0.02,Wunderground v.1.15,2013-08-15 11:08:00,
2013-08-15 07:09:00,76.7,73.5,29.93,ESE,113,1.0,3.0,90,0.00,,,0.02,Wunderground v.1.15,2013-08-15 11:09:00,
2013-08-15 07:13:00,76.8,73.6,29.93,SE,126,1.0,2.0,90,0.00,,,0.02,Wunderground v.1.15,2013-08-15 11:13:00,
2013-08-15 07:14:00,76.8,73.6,29.93,ESE,123,1.0,2.0,90,0.00,,,0.02,Wunderground v.1.15,2013-08-15 11:14:00,
2013-08-15 07:16:00,76.8,73.6,29.93,East,101,1.0,2.0,90,0.00,,,0.02,Wunderground v.1.15,2013-08-15 11:16:00,
2013-08-15 07:18:00,76.8,73.6,29.93,ESE,102,1.0,2.0,90,0.00,,,0.02,Wunderground v.1.15,2013-08-15 11:18:00,
2013-08-15 07:21:00,76.9,73.7,29.94,East,101,1.0,1.0,90,0.00,,,0.02,Wunderground v.1.15,2013-08-15 11:21:00,
2013-08-15 07:22:00,76.9,73.7,29.94,East,101,1.0,1.0,90,0.00,,,0.02,Wunderground v.1.15,2013-08-15 11:22:00,
2013-08-15 07:24:00,76.9,73.7,29.94,East,101,1.0,1.0,90,0.00,,,0.02,Wunderground v.1.15,2013-08-15 11:24:00,
2013-08-15 07:26:00,76.9,73.7,29.94,East,101,1.0,1.0,90,0.00,,,0.02,Wunderground v.1.15,2013-08-15 11:26:00,
2013-08-15 07:27:00,77.0,73.8,29.94,ESE,102,1.0,1.0,90,0.00,,,0.02,Wunderground v.1.15,2013-08-15 11:27:00,
2013-08-15 07:29:00,77.0,73.8,29.94,ESE,102,1.0,1.0,90,0.00,,,0.02,Wunderground v.1.15,2013-08-15 11:29:00,
2013-08-15 07:32:00,77.0,73.8,29.94,ESE,102,0.0,1.0,90,0.00,,,0.02,Wunderground v.1.15,2013-08-15 11:32:00,
2013-08-15 07:34:00,77.0,73.8,29.94,ESE,102,0.0,1.0,90,0.00,,,0.02,Wunderground v.1.15,2013-08-15 11:34:00,
2013-08-15 07:37:00,77.1,73.9,29.94,ESE,102,0.0,1.0,90,0.00,,,0.02,Wunderground v.1.15,2013-08-15 11:37:00,
2013-08-15 07:39:00,77.1,73.9,29.94,ESE,102,0.0,2.0,90,0.00,,,0.02,Wunderground v.1.15,2013-08-15 11:39:00,
2013-08-15 07:43:00,77.2,74.0,29.94,ESE,102,0.0,1.0,90,0.00,,,0.02,Wunderground v.1.15,2013-08-15 11:43:00,
2013-08-15 07:44:00,77.2,74.0,29.94,East,101,0.0,1.0,90,0.00,,,0.02,Wunderground v.1.15,2013-08-15 11:44:00,
2013-08-15 07:47:00,77.3,74.1,29.94,East,98,1.0,1.0,90,0.00,,,0.02,Wunderground v.1.15,2013-08-15 11:47:00,
2013-08-15 07:48:00,77.2,74.0,29.94,East,98,1.0,1.0,90,0.00,,,0.02,Wunderground v.1.15,2013-08-15 11:48:00,
2013-08-15 07:49:00,77.3,74.1,29.95,East,83,1.0,2.0,90,0.00,,,0.02,Wunderground v.1.15,2013-08-15 11:49:00,
2013-08-15 07:50:00,77.3,74.1,29.95,East,83,1.0,1.0,90,0.00,,,0.02,Wunderground v.1.15,2013-08-15 11:50:00,
2013-08-15 07:51:00,77.3,74.1,29.95,East,84,1.0,2.0,90,0.00,,,0.02,Wunderground v.1.15,2013-08-15 11:51:00,
2013-08-15 07:54:00,77.3,74.1,29.95,ENE,69,1.0,2.0,90,0.00,,,0.02,Wunderground v.1.15,2013-08-15 11:54:00,
2013-08-15 07:56:00,77.3,74.1,29.95,ENE,68,2.0,2.0,90,0.00,,,0.02,Wunderground v.1.15,2013-08-15 11:56:00,
2013-08-15 07:57:00,77.3,74.1,29.95,ENE,68,2.0,2.0,90,0.00,,,0.02,Wunderground v.1.15,2013-08-15 11:57:00,
2013-08-15 07:59:00,77.3,74.1,29.95,ENE,68,1.0,2.0,90,0.00,,,0.02,Wunderground v.1.15,2013-08-15 11:59:00,
2013-08-15 08:00:00,77.4,74.2,29.95,ENE,68,1.0,2.0,90,0.00,,,0.02,Wunderground v.1.15,2013-08-15 12:00:00,
2013-08-15 08:04:00,77.5,74.3,29.95,NNE,16,1.0,2.0,90,0.00,,,0.02,Wunderground v.1.15,2013-08-15 12:04:00,
2013-08-15 08:05:00,77.5,74.3,29.95,NE,34,1.0,2.0,90,0.00,,,0.02,Wunderground v.1.15,2013-08-15 12:05:00,
2013-08-15 08:07:00,77.6,74.4,29.96,NE,51,1.0,2.0,90,0.00,,,0.02,Wunderground v.1.15,2013-08-15 12:07:00,
2013-08-15 08:09:00,77.6,74.4,29.96,NE,51,1.0,4.0,90,0.00,,,0.02,Wunderground v.1.15,2013-08-15 12:09:00,
2013-08-15 08:10:00,77.6,74.4,29.96,NE,49,2.0,2.0,90,0.00,,,0.02,Wunderground v.1.15,2013-08-15 12:10:00,
2013-08-15 08:11:00,77.6,74.4,29.96,ENE,67,2.0,2.0,90,0.00,,,0.02,Wunderground v.1.15,2013-08-15 12:11:00,
2013-08-15 08:14:00,77.6,74.4,29.96,ENE,68,2.0,3.0,90,0.00,,,0.02,Wunderground v.1.15,2013-08-15 12:14:00,
2013-08-15 08:16:00,77.7,74.5,29.96,ENE,69,2.0,3.0,90,0.00,,,0.02,Wunderground v.1.15,2013-08-15 12:16:00,
2013-08-15 08:18:00,77.7,74.5,29.96,ENE,72,2.0,3.0,90,0.00,,,0.02,Wunderground v.1.15,2013-08-15 12:18:00,
2013-08-15 08:19:00,77.7,74.5,29.96,ENE,68,2.0,3.0,90,0.00,,,0.02,Wunderground v.1.15,2013-08-15 12:19:00,
2013-08-15 08:20:00,77.8,74.6,29.96,ENE,75,3.0,3.0,90,0.00,,,0.02,Wunderground v.1.15,2013-08-15 12:20:00,
2013-08-15 08:21:00,77.8,74.3,29.96,East,86,2.0,3.0,89,0.00,,,0.02,Wunderground v.1.15,2013-08-15 12:21:00,
2013-08-15 08:23:00,77.9,74.4,29.96,ENE,67,2.0,3.0,89,0.00,,,0.02,Wunderground v.1.15,2013-08-15 12:23:00,
2013-08-15 08:24:00,77.9,74.4,29.96,NNE,20,3.0,3.0,89,0.00,,,0.02,Wunderground v.1.15,2013-08-15 12:24:00,
2013-08-15 08:25:00,78.0,74.5,29.96,ENE,60,2.0,5.0,89,0.00,,,0.02,Wunderground v.1.15,2013-08-15 12:25:00,
2013-08-15 08:26:00,78.0,74.5,29.96,ENE,75,4.0,5.0,89,0.00,,,0.02,Wunderground v.1.15,2013-08-15 12:26:00,
2013-08-15 08:29:00,78.1,74.6,29.97,NE,56,3.0,5.0,89,0.00,,,0.02,Wunderground v.1.15,2013-08-15 12:29:00,
2013-08-15 08:30:00,78.1,74.6,29.97,NE,51,3.0,3.0,89,0.00,,,0.02,Wunderground v.1.15,2013-08-15 12:30:00,
2013-08-15 08:31:00,78.2,74.7,29.97,ENE,68,2.0,4.0,89,0.00,,,0.02,Wunderground v.1.15,2013-08-15 12:31:00,
2013-08-15 08:34:00,78.3,74.8,29.97,ENE,67,2.0,4.0,89,0.00,,,0.02,Wunderground v.1.15,2013-08-15 12:34:00,
2013-08-15 08:35:00,78.4,74.9,29.97,East,91,0.0,4.0,89,0.00,,,0.02,Wunderground v.1.15,2013-08-15 12:35:00,
2013-08-15 08:36:00,78.5,75.0,29.97,ENE,71,3.0,4.0,89,0.00,,,0.02,Wunderground v.1.15,2013-08-15 12:36:00,
2013-08-15 08:39:00,78.6,74.7,29.97,East,91,3.0,6.0,88,0.00,,,0.02,Wunderground v.1.15,2013-08-15 12:39:00,
2013-08-15 08:40:00,78.7,74.8,29.97,ENE,77,3.0,3.0,88,0.00,,,0.02,Wunderground v.1.15,2013-08-15 12:40:00,
2013-08-15 08:41:00,78.8,74.9,29.97,East,93,3.0,4.0,88,0.00,,,0.02,Wunderground v.1.15,2013-08-15 12:41:00,
2013-08-15 08:45:00,79.0,75.1,29.97,East,89,2.0,4.0,88,0.00,,,0.02,Wunderground v.1.15,2013-08-15 12:45:00,
2013-08-15 08:46:00,79.1,75.2,29.97,ENE,77,3.0,4.0,88,0.00,,,0.02,Wunderground v.1.15,2013-08-15 12:46:00,
2013-08-15 08:47:00,79.1,75.2,29.97,East,88,2.0,5.0,88,0.00,,,0.02,Wunderground v.1.15,2013-08-15 12:47:00,
2013-08-15 08:50:00,79.1,74.9,29.97,East,92,4.0,8.0,87,0.00,,,0.02,Wunderground v.1.15,2013-08-15 12:50:00,
2013-08-15 08:51:00,79.1,74.9,29.97,ENE,75,4.0,6.0,87,0.00,,,0.02,Wunderground v.1.15,2013-08-15 12:51:00,
2013-08-15 08:52:00,79.1,74.9,29.97,ENE,60,3.0,6.0,87,0.00,,,0.02,Wunderground v.1.15,2013-08-15 12:52:00,
2013-08-15 08:55:00,79.2,75.0,29.97,East,79,2.0,6.0,87,0.00,,,0.02,Wunderground v.1.15,2013-08-15 12:55:00,
2013-08-15 08:56:00,79.2,75.3,29.98,ENE,72,3.0,6.0,88,0.00,,,0.02,Wunderground v.1.15,2013-08-15 12:56:00,
2013-08-15 08:57:00,79.2,75.3,29.97,East,90,1.0,6.0,88,0.00,,,0.02,Wunderground v.1.15,2013-08-15 12:57:00,
2013-08-15 09:00:00,79.3,75.1,29.97,ENE,62,3.0,4.0,87,0.00,,,0.02,Wunderground v.1.15,2013-08-15 13:00:00,
2013-08-15 09:01:00,79.4,75.2,29.97,ENE,68,3.0,4.0,87,0.00,,,0.02,Wunderground v.1.15,2013-08-15 13:01:00,
2013-08-15 09:02:00,79.3,75.1,29.97,ENE,77,5.0,5.0,87,0.00,,,0.02,Wunderground v.1.15,2013-08-15 13:02:00,
2013-08-15 09:05:00,79.4,75.2,29.97,ENE,65,3.0,7.0,87,0.00,,,0.02,Wunderground v.1.15,2013-08-15 13:05:00,
2013-08-15 09:06:00,79.4,75.2,29.97,ENE,72,3.0,7.0,87,0.00,,,0.02,Wunderground v.1.15,2013-08-15 13:06:00,
2013-08-15 09:07:00,79.4,75.2,29.97,ENE,58,3.0,7.0,87,0.00,,,0.02,Wunderground v.1.15,2013-08-15 13:07:00,
2013-08-15 09:10:00,79.6,75.4,29.98,East,86,3.0,5.0,87,0.00,,,0.02,Wunderground v.1.15,2013-08-15 13:10:00,
2013-08-15 09:11:00,79.6,75.4,29.98,ENE,72,4.0,5.0,87,0.00,,,0.02,Wunderground v.1.15,2013-08-15 13:11:00,
2013-08-15 09:12:00,79.6,75.4,29.98,East,98,2.0,5.0,87,0.00,,,0.02,Wunderground v.1.15,2013-08-15 13:12:00,
2013-08-15 09:13:00,79.6,75.4,29.98,ENE,77,3.0,5.0,87,0.00,,,0.02,Wunderground v.1.15,2013-08-15 13:13:00,
2013-08-15 09:16:00,79.7,75.5,29.98,ESE,115,4.0,5.0,87,0.00,,,0.02,Wunderground v.1.15,2013-08-15 13:16:00,
2013-08-15 09:17:00,79.7,75.5,29.98,East,88,3.0,5.0,87,0.00,,,0.02,Wunderground v.1.15,2013-08-15 13:17:00,
2013-08-15 09:18:00,79.7,75.5,29.98,East,87,4.0,5.0,87,0.00,,,0.02,Wunderground v.1.15,2013-08-15 13:18:00,
2013-08-15 09:21:00,79.8,75.6,29.97,ESE,103,2.0,4.0,87,0.00,,,0.02,Wunderground v.1.15,2013-08-15 13:21:00,
2013-08-15 09:22:00,79.9,75.7,29.97,East,86,1.0,4.0,87,0.00,,,0.02,Wunderground v.1.15,2013-08-15 13:22:00,
2013-08-15 09:23:00,79.9,75.7,29.97,ESE,103,2.0,4.0,87,0.00,,,0.02,Wunderground v.1.15,2013-08-15 13:23:00,
2013-08-15 09:26:00,80.0,75.8,29.98,ESE,105,1.0,4.0,87,0.00,,,0.02,Wunderground v.1.15,2013-08-15 13:26:00,
2013-08-15 09:27:00,80.1,75.9,29.98,East,91,2.0,4.0,87,0.00,,,0.02,Wunderground v.1.15,2013-08-15 13:27:00,
2013-08-15 09:29:00,80.2,76.0,29.98,ENE,78,4.0,4.0,87,0.00,,,0.02,Wunderground v.1.15,2013-08-15 13:29:00,
2013-08-15 09:31:00,80.3,76.1,29.98,East,84,2.0,4.0,87,0.00,,,0.02,Wunderground v.1.15,2013-08-15 13:31:00,
2013-08-15 09:32:00,80.3,76.1,29.98,East,86,1.0,4.0,87,0.00,,,0.02,Wunderground v.1.15,2013-08-15 13:32:00,
2013-08-15 09:33:00,80.5,76.3,29.98,East,85,2.0,4.0,87,0.00,,,0.02,Wunderground v.1.15,2013-08-15 13:33:00,
2013-08-15 09:34:00,80.6,76.0,29.98,ENE,72,5.0,7.0,86,0.00,,,0.02,Wunderground v.1.15,2013-08-15 13:34:00,
2013-08-15 09:37:00,80.7,76.1,29.98,ENE,78,2.0,7.0,86,0.00,,,0.02,Wunderground v.1.15,2013-08-15 13:37:00,
2013-08-15 09:38:00,80.8,76.2,29.98,ENE,70,4.0,7.0,86,0.00,,,0.02,Wunderground v.1.15,2013-08-15 13:38:00,
2013-08-15 09:40:00,80.9,76.3,29.98,ENE,74,5.0,5.0,86,0.00,,,0.02,Wunderground v.1.15,2013-08-15 13:40:00,
2013-08-15 09:42:00,81.0,76.4,29.98,East,98,4.0,5.0,86,0.00,,,0.02,Wunderground v.1.15,2013-08-15 13:42:00,
2013-08-15 09:43:00,81.2,76.6,29.98,NE,45,6.0,6.0,86,0.00,,,0.02,Wunderground v.1.15,2013-08-15 13:43:00,
2013-08-15 09:46:00,81.3,76.4,29.98,East,86,2.0,6.0,85,0.00,,,0.02,Wunderground v.1.15,2013-08-15 13:46:00,
2013-08-15 09:47:00,81.4,76.5,29.98,ENE,70,5.0,6.0,85,0.00,,,0.02,Wunderground v.1.15,2013-08-15 13:47:00,
2013-08-15 09:48:00,81.4,76.5,29.98,East,82,6.0,6.0,85,0.00,,,0.02,Wunderground v.1.15,2013-08-15 13:48:00,
2013-08-15 09:51:00,81.6,76.6,29.99,NE,56,2.0,4.0,85,0.00,,,0.02,Wunderground v.1.15,2013-08-15 13:51:00,
2013-08-15 09:52:00,81.6,76.6,29.99,NE,47,4.0,9.0,85,0.00,,,0.02,Wunderground v.1.15,2013-08-15 13:52:00,
2013-08-15 09:53:00,81.6,75.9,29.98,East,98,6.0,9.0,83,0.00,,,0.02,Wunderground v.1.15,2013-08-15 13:53:00,
2013-08-15 09:54:00,81.6,75.9,29.98,ESE,117,8.0,9.0,83,0.00,,,0.02,Wunderground v.1.15,2013-08-15 13:54:00,
2013-08-15 09:56:00,81.6,76.3,29.99,East,83,3.0,9.0,84,0.00,,,0.02,Wunderground v.1.15,2013-08-15 13:56:00,
2013-08-15 09:57:00,81.6,76.3,29.98,ENE,75,3.0,9.0,84,0.00,,,0.02,Wunderground v.1.15,2013-08-15 13:57:00,
2013-08-15 09:59:00,81.6,76.3,29.99,ENE,64,4.0,9.0,84,0.00,,,0.02,Wunderground v.1.15,2013-08-15 13:59:00,
2013-08-15 10:01:00,81.6,76.3,29.99,East,98,2.0,4.0,84,0.00,,,0.02,Wunderground v.1.15,2013-08-15 14:01:00,
2013-08-15 10:02:00,81.7,76.4,29.99,ESE,115,2.0,4.0,84,0.00,,,0.02,Wunderground v.1.15,2013-08-15 14:02:00,
2013-08-15 10:04:00,81.8,76.5,29.99,SE,129,4.0,5.0,84,0.00,,,0.02,Wunderground v.1.15,2013-08-15 14:04:00,
2013-08-15 10:06:00,81.9,76.2,29.99,East,86,1.0,5.0,83,0.00,,,0.02,Wunderground v.1.15,2013-08-15 14:06:00,
2013-08-15 10:07:00,81.9,76.2,29.99,NE,54,2.0,5.0,83,0.00,,,0.02,Wunderground v.1.15,2013-08-15 14:07:00,
2013-08-15 10:08:00,82.0,76.3,29.99,ENE,72,1.0,5.0,83,0.00,,,0.02,Wunderground v.1.15,2013-08-15 14:08:00,
2013-08-15 10:09:00,82.1,76.4,29.99,ESE,114,1.0,5.0,83,0.00,,,0.02,Wunderground v.1.15,2013-08-15 14:09:00,
2013-08-15 10:12:00,82.5,77.2,29.99,ESE,108,2.0,3.0,84,0.00,,,0.02,Wunderground v.1.15,2013-08-15 14:12:00,
2013-08-15 10:14:00,82.8,77.1,29.99,ESE,108,2.0,4.0,83,0.00,,,0.02,Wunderground v.1.15,2013-08-15 14:14:00,
2013-08-15 10:16:00,82.8,76.7,29.99,ESE,115,3.0,4.0,82,0.00,,,0.02,Wunderground v.1.15,2013-08-15 14:16:00,
2013-08-15 10:17:00,82.9,76.8,29.99,ESE,121,3.0,4.0,82,0.00,,,0.02,Wunderground v.1.15,2013-08-15 14:17:00,
2013-08-15 10:19:00,83.0,76.6,29.99,ENE,73,4.0,6.0,81,0.00,,,0.02,Wunderground v.1.15,2013-08-15 14:19:00,
2013-08-15 10:20:00,83.0,76.6,29.99,ENE,70,4.0,6.0,81,0.00,,,0.02,Wunderground v.1.15,2013-08-15 14:20:00,
2013-08-15 10:21:00,83.1,77.0,29.99,ESE,118,3.0,5.0,82,0.00,,,0.02,Wunderground v.1.15,2013-08-15 14:21:00,
2013-08-15 10:22:00,83.1,77.0,29.99,ENE,75,9.0,9.0,82,0.00,,,0.02,Wunderground v.1.15,2013-08-15 14:22:00,
2013-08-15 10:23:00,83.1,76.7,29.99,East,91,6.0,9.0,81,0.00,,,0.02,Wunderground v.1.15,2013-08-15 14:23:00,
2013-08-15 10:25:00,83.0,76.6,29.99,ENE,68,5.0,9.0,81,0.00,,,0.02,Wunderground v.1.15,2013-08-15 14:25:00,
2013-08-15 10:26:00,83.1,76.7,29.99,East,101,3.0,9.0,81,0.00,,,0.02,Wunderground v.1.15,2013-08-15 14:26:00,
2013-08-15 10:27:00,83.1,76.7,29.99,ESE,117,3.0,9.0,81,0.00,,,0.02,Wunderground v.1.15,2013-08-15 14:27:00,
2013-08-15 10:29:00,83.2,77.1,29.99,ENE,72,4.0,9.0,82,0.00,,,0.02,Wunderground v.1.15,2013-08-15 14:29:00,
2013-08-15 10:30:00,83.3,76.9,29.99,ESE,115,7.0,9.0,81,0.00,,,0.02,Wunderground v.1.15,2013-08-15 14:30:00,
2013-08-15 10:31:00,83.5,77.1,29.99,East,97,4.0,6.0,81,0.00,,,0.02,Wunderground v.1.15,2013-08-15 14:31:00,
2013-08-15 10:32:00,83.6,77.1,29.99,SE,125,3.0,6.0,81,0.00,,,0.02,Wunderground v.1.15,2013-08-15 14:32:00,
2013-08-15 10:34:00,83.7,77.2,29.99,East,86,7.0,7.0,81,0.00,,,0.02,Wunderground v.1.15,2013-08-15 14:34:00,
2013-08-15 10:35:00,83.7,76.9,29.99,ENE,62,3.0,7.0,80,0.00,,,0.02,Wunderground v.1.15,2013-08-15 14:35:00,
2013-08-15 10:36:00,83.7,76.9,29.99,East,81,2.0,7.0,80,0.00,,,0.02,Wunderground v.1.15,2013-08-15 14:36:00,
2013-08-15 10:38:00,83.7,76.9,29.99,ENE,62,4.0,7.0,80,0.00,,,0.02,Wunderground v.1.15,2013-08-15 14:38:00,
2013-08-15 10:40:00,83.6,76.8,29.99,ENE,70,6.0,8.0,80,0.00,,,0.02,Wunderground v.1.15,2013-08-15 14:40:00,
2013-08-15 10:41:00,83.6,77.1,29.99,ESE,109,3.0,6.0,81,0.00,,,0.02,Wunderground v.1.15,2013-08-15 14:41:00,
2013-08-15 10:43:00,83.9,77.8,29.99,SE,146,4.0,6.0,82,0.00,,,0.02,Wunderground v.1.15,2013-08-15 14:43:00,
2013-08-15 10:46:00,84.3,77.8,29.99,ESE,103,4.0,6.0,81,0.00,,,0.02,Wunderground v.1.15,2013-08-15 14:46:00,
2013-08-15 10:48:00,84.4,77.6,29.99,East,82,3.0,7.0,80,0.00,,,0.02,Wunderground v.1.15,2013-08-15 14:48:00,
2013-08-15 10:49:00,84.5,78.0,29.99,SE,125,4.0,7.0,81,0.00,,,0.02,Wunderground v.1.15,2013-08-15 14:49:00,
2013-08-15 10:50:00,84.5,78.0,29.99,ENE,70,3.0,7.0,81,0.00,,,0.02,Wunderground v.1.15,2013-08-15 14:50:00,
2013-08-15 10:51:00,84.6,77.7,29.99,East,89,8.0,9.0,80,0.00,,,0.02,Wunderground v.1.15,2013-08-15 14:51:00,
2013-08-15 10:52:00,84.5,77.6,29.99,ESE,114,8.0,9.0,80,0.00,,,0.02,Wunderground v.1.15,2013-08-15 14:52:00,
2013-08-15 10:53:00,84.5,77.6,29.99,SE,136,5.0,9.0,80,0.00,,,0.02,Wunderground v.1.15,2013-08-15 14:53:00,
2013-08-15 10:54:00,84.5,77.6,29.99,ESE,103,4.0,9.0,80,0.00,,,0.02,Wunderground v.1.15,2013-08-15 14:54:00,
2013-08-15 10:55:00,84.5,77.6,29.99,SE,133,3.0,9.0,80,0.00,,,0.02,Wunderground v.1.15,2013-08-15 14:55:00,
2013-08-15 10:56:00,84.5,77.6,29.99,SE,126,7.0,9.0,80,0.00,,,0.02,Wunderground v.1.15,2013-08-15 14:56:00,
2013-08-15 10:57:00,84.6,77.7,29.99,ESE,109,5.0,9.0,80,0.00,,,0.02,Wunderground v.1.15,2013-08-15 14:57:00,
2013-08-15 10:58:00,84.6,77.7,29.99,East,91,8.0,9.0,80,0.00,,,0.02,Wunderground v.1.15,2013-08-15 14:58:00,
2013-08-15 10:59:00,84.6,77.4,29.99,SE,135,5.0,9.0,79,0.00,,,0.02,Wunderground v.1.15,2013-08-15 14:59:00,
2013-08-15 11:01:00,84.6,77.4,29.99,SE,134,5.0,5.0,79,0.00,,,0.02,Wunderground v.1.15,2013-08-15 15:01:00,
2013-08-15 11:02:00,84.6,77.4,29.99,East,97,3.0,5.0,79,0.00,,,0.02,Wunderground v.1.15,2013-08-15 15:02:00,
2013-08-15 11:03:00,84.7,77.8,30.00,ESE,108,6.0,10.0,80,0.00,,,0.02,Wunderground v.1.15,2013-08-15 15:03:00,
2013-08-15 11:04:00,84.7,77.8,30.00,ESE,118,6.0,10.0,80,0.00,,,0.02,Wunderground v.1.15,2013-08-15 15:04:00,
2013-08-15 11:06:00,84.8,77.9,30.00,SE,144,6.0,10.0,80,0.00,,,0.02,Wunderground v.1.15,2013-08-15 15:06:00,
2013-08-15 11:07:00,84.8,77.9,30.00,ESE,122,6.0,10.0,80,0.00,,,0.02,Wunderground v.1.15,2013-08-15 15:07:00,
2013-08-15 11:08:00,84.8,77.9,30.00,SE,131,5.0,10.0,80,0.00,,,0.02,Wunderground v.1.15,2013-08-15 15:08:00,
2013-08-15 11:09:00,84.8,77.9,30.00,East,85,2.0,10.0,80,0.00,,,0.02,Wunderground v.1.15,2013-08-15 15:09:00,
2013-08-15 11:12:00,85.1,78.2,30.00,SE,134,3.0,5.0,80,0.00,,,0.02,Wunderground v.1.15,2013-08-15 15:12:00,
2013-08-15 11:13:00,85.3,78.4,30.00,ESE,115,4.0,7.0,80,0.00,,,0.02,Wunderground v.1.15,2013-08-15 15:13:00,
2013-08-15 11:17:00,85.4,78.1,30.00,SE,128,3.0,7.0,79,0.00,,,0.02,Wunderground v.1.15,2013-08-15 15:17:00,
2013-08-15 11:18:00,85.5,78.2,30.00,SSE,155,5.0,7.0,79,0.00,,,0.02,Wunderground v.1.15,2013-08-15 15:18:00,
2013-08-15 11:19:00,85.5,77.9,30.00,SE,141,5.0,7.0,78,0.00,,,0.02,Wunderground v.1.15,2013-08-15 15:19:00,
2013-08-15 11:21:00,85.6,78.3,30.00,South,190,6.0,6.0,79,0.00,,,0.02,Wunderground v.1.15,2013-08-15 15:21:00,
2013-08-15 11:22:00,85.7,78.0,30.00,SW,226,5.0,7.0,78,0.00,,,0.02,Wunderground v.1.15,2013-08-15 15:22:00,
2013-08-15 11:23:00,85.7,78.0,30.00,SSW,205,4.0,7.0,78,0.00,,,0.02,Wunderground v.1.15,2013-08-15 15:23:00,
2013-08-15 11:25:00,86.1,78.4,29.99,SE,139,4.0,7.0,78,0.00,,,0.02,Wunderground v.1.15,2013-08-15 15:25:00,
2013-08-15 11:26:00,86.3,78.6,30.00,SSE,153,3.0,7.0,78,0.00,,,0.02,Wunderground v.1.15,2013-08-15 15:26:00,
2013-08-15 11:27:00,86.5,78.4,29.99,SSW,204,5.0,7.0,77,0.00,,,0.02,Wunderground v.1.15,2013-08-15 15:27:00,
2013-08-15 11:28:00,86.6,78.5,29.99,SSW,210,4.0,7.0,77,0.00,,,0.02,Wunderground v.1.15,2013-08-15 15:28:00,
2013-08-15 11:29:00,86.6,78.1,29.99,East,84,4.0,7.0,76,0.00,,,0.02,Wunderground v.1.15,2013-08-15 15:29:00,
2013-08-15 11:30:00,86.6,78.1,29.99,East,93,4.0,4.0,76,0.00,,,0.02,Wunderground v.1.15,2013-08-15 15:30:00,
2013-08-15 11:31:00,86.6,77.7,29.99,East,84,10.0,10.0,75,0.00,,,0.02,Wunderground v.1.15,2013-08-15 15:31:00,
2013-08-15 11:32:00,86.5,77.6,29.99,ESE,121,3.0,10.0,75,0.00,,,0.02,Wunderground v.1.15,2013-08-15 15:32:00,
2013-08-15 11:33:00,86.6,78.5,29.99,East,83,5.0,10.0,77,0.00,,,0.02,Wunderground v.1.15,2013-08-15 15:33:00,
2013-08-15 11:34:00,86.6,78.5,29.99,SE,124,6.0,10.0,77,0.00,,,0.02,Wunderground v.1.15,2013-08-15 15:34:00,
2013-08-15 11:35:00,86.7,78.2,29.99,ESE,112,4.0,10.0,76,0.00,,,0.02,Wunderground v.1.15,2013-08-15 15:35:00,
2013-08-15 11:37:00,86.8,78.3,29.99,South,175,7.0,11.0,76,0.00,,,0.02,Wunderground v.1.15,2013-08-15 15:37:00,
2013-08-15 11:39:00,86.8,77.1,29.99,SW,221,4.0,11.0,73,0.00,,,0.02,Wunderground v.1.15,2013-08-15 15:39:00,
2013-08-15 11:41:00,86.9,78.0,29.99,South,177,5.0,5.0,75,0.00,,,0.02,Wunderground v.1.15,2013-08-15 15:41:00,
2013-08-15 11:42:00,87.1,78.2,29.99,SSE,148,5.0,5.0,75,0.00,,,0.02,Wunderground v.1.15,2013-08-15 15:42:00,
2013-08-15 11:44:00,87.3,78.0,29.99,SSW,198,3.0,6.0,74,0.00,,,0.02,Wunderground v.1.15,2013-08-15 15:44:00,
2013-08-15 11:46:00,87.6,78.3,29.99,SSW,212,4.0,6.0,74,0.00,,,0.02,Wunderground v.1.15,2013-08-15 15:46:00,
2013-08-15 11:47:00,87.7,78.0,29.99,SE,138,4.0,6.0,73,0.00,,,0.02,Wunderground v.1.15,2013-08-15 15:47:00,
2013-08-15 11:48:00,87.7,78.0,29.99,SE,125,2.0,6.0,73,0.00,,,0.02,Wunderground v.1.15,2013-08-15 15:48:00,
2013-08-15 11:49:00,87.7,78.0,29.99,NE,51,5.0,6.0,73,0.00,,,0.02,Wunderground v.1.15,2013-08-15 15:49:00,
2013-08-15 11:51:00,87.7,77.5,29.99,SW,217,2.0,6.0,72,0.00,,,0.02,Wunderground v.1.15,2013-08-15 15:51:00,
2013-08-15 11:53:00,87.8,78.1,29.99,SSE,167,6.0,7.0,73,0.00,,,0.02,Wunderground v.1.15,2013-08-15 15:53:00,
2013-08-15 11:54:00,87.8,78.5,29.99,SSE,156,3.0,7.0,74,0.00,,,0.02,Wunderground v.1.15,2013-08-15 15:54:00,
2013-08-15 11:55:00,87.8,78.5,29.99,SSW,195,3.0,7.0,74,0.00,,,0.02,Wunderground v.1.15,2013-08-15 15:55:00,
2013-08-15 11:56:00,87.9,78.2,29.99,SSW,193,6.0,7.0,73,0.00,,,0.02,Wunderground v.1.15,2013-08-15 15:56:00,
2013-08-15 11:58:00,87.9,77.7,29.99,SW,220,5.0,9.0,72,0.00,,,0.02,Wunderground v.1.15,2013-08-15 15:58:00,
2013-08-15 11:59:00,87.9,77.7,29.99,SSW,196,3.0,9.0,72,0.00,,,0.02,Wunderground v.1.15,2013-08-15 15:59:00,
2013-08-15 12:04:00,87.5,77.4,29.99,SSE,165,6.0,6.0,72,0.00,,,0.02,Wunderground v.1.15,2013-08-15 16:04:00,
2013-08-15 12:05:00,87.5,77.4,29.99,SE,142,4.0,6.0,72,0.00,,,0.02,Wunderground v.1.15,2013-08-15 16:05:00,
2013-08-15 12:09:00,87.4,77.3,29.99,SW,223,3.0,5.0,72,0.00,,,0.02,Wunderground v.1.15,2013-08-15 16:09:00,
2013-08-15 12:10:00,87.5,77.4,29.99,SSW,211,4.0,5.0,72,0.00,,,0.02,Wunderground v.1.15,2013-08-15 16:10:00,
2013-08-15 12:11:00,87.4,77.3,29.99,SSW,210,4.0,5.0,72,0.00,,,0.02,Wunderground v.1.15,2013-08-15 16:11:00,
2013-08-15 12:15:00,87.2,77.1,29.99,SW,219,2.0,6.0,72,0.00,,,0.02,Wunderground v.1.15,2013-08-15 16:15:00,
2013-08-15 12:16:00,87.2,77.1,29.99,SW,222,2.0,6.0,72,0.00,,,0.02,Wunderground v.1.15,2013-08-15 16:16:00,
2013-08-15 12:17:00,87.3,77.6,29.99,SSE,151,3.0,6.0,73,0.00,,,0.02,Wunderground v.1.15,2013-08-15 16:17:00,
2013-08-15 12:22:00,87.7,78.0,29.99,SSE,149,4.0,4.0,73,0.00,,,0.02,Wunderground v.1.15,2013-08-15 16:22:00,
2013-08-15 12:23:00,87.7,78.0,29.98,SE,139,4.0,5.0,73,0.00,,,0.02,Wunderground v.1.15,2013-08-15 16:23:00,
2013-08-15 12:24:00,87.6,77.5,29.98,SW,217,5.0,6.0,72,0.00,,,0.02,Wunderground v.1.15,2013-08-15 16:24:00,
2013-08-15 12:25:00,87.6,77.5,29.98,SSW,198,4.0,6.0,72,0.00,,,0.02,Wunderground v.1.15,2013-08-15 16:25:00,
2013-08-15 12:27:00,87.5,77.8,29.99,SSW,212,6.0,9.0,73,0.00,,,0.02,Wunderground v.1.15,2013-08-15 16:27:00,
2013-08-15 12:28:00,87.5,77.8,29.99,ESE,115,6.0,9.0,73,0.00,,,0.02,Wunderground v.1.15,2013-08-15 16:28:00,
2013-08-15 12:29:00,87.6,78.3,29.98,SSE,157,5.0,6.0,74,0.00,,,0.02,Wunderground v.1.15,2013-08-15 16:29:00,
2013-08-15 12:55:00,87.2,78.3,29.98,SSW,198,4.0,6.0,75,0.00,,,0.02,Wunderground v.1.15,2013-08-15 16:55:00,
2013-08-15 13:02:00,87.1,78.6,29.98,South,190,6.0,6.0,76,0.00,,,0.02,Wunderground v.1.15,2013-08-15 17:02:00,
2013-08-15 13:03:00,87.1,78.6,29.98,SSW,210,6.0,7.0,76,0.00,,,0.02,Wunderground v.1.15,2013-08-15 17:03:00,
2013-08-15 13:07:00,87.0,78.1,29.98,SW,224,7.0,7.0,75,0.00,,,0.02,Wunderground v.1.15,2013-08-15 17:07:00,
2013-08-15 13:08:00,87.1,78.2,29.98,SW,232,5.0,7.0,75,0.00,,,0.02,Wunderground v.1.15,2013-08-15 17:08:00,
2013-08-15 13:12:00,86.9,78.0,29.98,South,180,5.0,10.0,75,0.00,,,0.02,Wunderground v.1.15,2013-08-15 17:12:00,
2013-08-15 13:13:00,86.9,78.0,29.98,WSW,239,9.0,10.0,75,0.00,,,0.02,Wunderground v.1.15,2013-08-15 17:13:00,
2013-08-15 13:14:00,87.0,78.1,29.98,South,189,6.0,10.0,75,0.00,,,0.02,Wunderground v.1.15,2013-08-15 17:14:00,
2013-08-15 13:17:00,87.1,77.8,29.98,West,264,5.0,10.0,74,0.00,,,0.02,Wunderground v.1.15,2013-08-15 17:17:00,
2013-08-15 13:18:00,87.0,77.7,29.98,SW,215,8.0,10.0,74,0.00,,,0.02,Wunderground v.1.15,2013-08-15 17:18:00,
2013-08-15 13:19:00,86.9,76.4,29.98,SSW,197,7.0,7.0,71,0.00,,,0.02,Wunderground v.1.15,2013-08-15 17:19:00,
2013-08-15 13:22:00,86.8,77.1,29.98,SSW,210,8.0,8.0,73,0.00,,,0.02,Wunderground v.1.15,2013-08-15 17:22:00,
2013-08-15 13:25:00,86.8,77.1,29.98,South,191,5.0,9.0,73,0.00,,,0.02,Wunderground v.1.15,2013-08-15 17:25:00,
2013-08-15 13:26:00,86.9,77.6,29.98,SSW,211,6.0,9.0,74,0.00,,,0.02,Wunderground v.1.15,2013-08-15 17:26:00,
2013-08-15 13:27:00,86.9,77.6,29.98,SSW,200,3.0,9.0,74,0.00,,,0.02,Wunderground v.1.15,2013-08-15 17:27:00,
2013-08-15 13:30:00,86.8,77.9,29.98,SW,226,8.0,10.0,75,0.00,,,0.02,Wunderground v.1.15,2013-08-15 17:30:00,
2013-08-15 13:31:00,86.7,77.8,29.98,SSW,205,8.0,10.0,75,0.00,,,0.02,Wunderground v.1.15,2013-08-15 17:31:00,
2013-08-15 13:34:00,86.2,77.7,29.98,SSW,211,6.0,12.0,76,0.00,,,0.02,Wunderground v.1.15,2013-08-15 17:34:00,
2013-08-15 13:36:00,86.2,78.1,29.97,SW,219,5.0,12.0,77,0.00,,,0.02,Wunderground v.1.15,2013-08-15 17:36:00,
2013-08-15 13:37:00,86.3,78.2,29.97,SW,222,8.0,12.0,77,0.00,,,0.02,Wunderground v.1.15,2013-08-15 17:37:00,
2013-08-15 13:40:00,86.2,78.1,29.97,WSW,257,6.0,8.0,77,0.00,,,0.02,Wunderground v.1.15,2013-08-15 17:40:00,
2013-08-15 13:41:00,86.2,78.1,29.97,SSW,205,5.0,8.0,77,0.00,,,0.02,Wunderground v.1.15,2013-08-15 17:41:00,
2013-08-15 13:45:00,86.4,78.7,29.97,SW,232,8.0,9.0,78,0.00,,,0.02,Wunderground v.1.15,2013-08-15 17:45:00,
2013-08-15 13:49:00,86.7,79.0,29.97,South,175,6.0,6.0,78,0.00,,,0.02,Wunderground v.1.15,2013-08-15 17:49:00,
2013-08-15 13:50:00,86.8,79.1,29.97,South,176,7.0,7.0,78,0.00,,,0.02,Wunderground v.1.15,2013-08-15 17:50:00,
2013-08-15 13:51:00,86.8,78.7,29.97,South,188,6.0,7.0,77,0.00,,,0.02,Wunderground v.1.15,2013-08-15 17:51:00,
2013-08-15 14:00:00,86.7,78.2,29.97,SW,229,7.0,7.0,76,0.00,,,0.02,Wunderground v.1.15,2013-08-15 18:00:00,
2013-08-15 14:10:00,86.8,78.3,29.97,SSE,166,6.0,10.0,76,0.00,,,0.02,Wunderground v.1.15,2013-08-15 18:10:00,
2013-08-15 14:20:00,86.9,78.4,29.96,SE,125,7.0,7.0,76,0.00,,,0.02,Wunderground v.1.15,2013-08-15 18:20:00,
2013-08-15 14:40:00,86.3,78.6,29.96,South,171,5.0,6.0,78,0.00,,,0.02,Wunderground v.1.15,2013-08-15 18:40:00,
2013-08-15 14:50:00,86.0,79.1,29.96,SE,146,5.0,5.0,80,0.00,,,0.02,Wunderground v.1.15,2013-08-15 18:50:00,
2013-08-15 15:10:00,85.9,78.6,29.95,SSW,193,6.0,8.0,79,0.00,,,0.02,Wunderground v.1.15,2013-08-15 19:10:00,
2013-08-15 15:20:00,85.9,78.6,29.95,SSW,210,6.0,6.0,79,0.00,,,0.02,Wunderground v.1.15,2013-08-15 19:20:00,
2013-08-15 15:30:00,85.7,78.0,29.95,WSW,239,6.0,6.0,78,0.00,,,0.02,Wunderground v.1.15,2013-08-15 19:30:00,
2013-08-15 15:40:00,85.5,78.2,29.95,SSW,195,6.0,7.0,79,0.00,,,0.02,Wunderground v.1.15,2013-08-15 19:40:00,
2013-08-15 15:50:00,85.1,77.8,29.95,SW,218,7.0,7.0,79,0.00,,,0.02,Wunderground v.1.15,2013-08-15 19:50:00,
2013-08-15 16:00:00,85.2,77.9,29.95,SSW,195,4.0,5.0,79,0.00,,,0.02,Wunderground v.1.15,2013-08-15 20:00:00,
2013-08-15 16:07:00,85.1,76.7,29.94,SSE,149,4.0,5.0,76,0.00,,,0.02,Wunderground v.1.15,2013-08-15 20:07:00,
2013-08-15 16:10:00,85.0,75.8,29.95,SSW,199,6.0,8.0,74,0.00,,,0.02,Wunderground v.1.15,2013-08-15 20:10:00,
2013-08-15 16:11:00,84.9,75.7,29.95,South,184,6.0,8.0,74,0.00,,,0.02,Wunderground v.1.15,2013-08-15 20:11:00,
2013-08-15 16:14:00,84.7,76.3,29.95,SW,214,11.0,12.0,76,1.98,,,0.06,Wunderground v.1.15,2013-08-15 20:14:00,
2013-08-15 16:15:00,83.7,78.0,29.95,SSW,212,6.0,16.0,83,1.35,,,0.11,Wunderground v.1.15,2013-08-15 20:15:00,
2013-08-15 16:16:00,83.5,77.8,29.95,WSW,241,9.0,16.0,83,0.67,,,0.11,Wunderground v.1.15,2013-08-15 20:16:00,
2013-08-15 16:17:00,83.2,77.5,29.95,SSW,212,8.0,16.0,83,0.67,,,0.12,Wunderground v.1.15,2013-08-15 20:17:00,
2013-08-15 16:19:00,81.8,76.5,29.95,South,191,7.0,7.0,84,0.92,,,0.15,Wunderground v.1.15,2013-08-15 20:19:00,
2013-08-15 16:21:00,81.3,76.4,29.95,SW,223,7.0,7.0,85,0.55,,,0.17,Wunderground v.1.15,2013-08-15 20:21:00,
2013-08-15 16:24:00,80.9,76.7,29.94,SSE,153,5.0,7.0,87,0.28,,,0.18,Wunderground v.1.15,2013-08-15 20:24:00,
2013-08-15 16:29:00,80.8,76.9,29.94,South,186,2.0,2.0,88,0.10,,,0.18,Wunderground v.1.15,2013-08-15 20:29:00,
2013-08-15 16:32:00,80.8,76.9,29.94,SE,128,1.0,2.0,88,0.06,,,0.18,Wunderground v.1.15,2013-08-15 20:32:00,
2013-08-15 16:34:00,81.0,77.4,29.94,South,176,3.0,3.0,89,0.05,,,0.18,Wunderground v.1.15,2013-08-15 20:34:00,
2013-08-15 16:38:00,81.2,77.3,29.94,SSW,211,4.0,9.0,88,0.04,,,0.18,Wunderground v.1.15,2013-08-15 20:38:00,
2013-08-15 16:39:00,81.4,77.5,29.94,SW,219,2.0,3.0,88,0.04,,,0.18,Wunderground v.1.15,2013-08-15 20:39:00,
2013-08-15 16:44:00,81.8,77.5,29.94,WSW,253,3.0,7.0,87,0.00,,,0.18,Wunderground v.1.15,2013-08-15 20:44:00,
2013-08-15 16:45:00,81.8,77.5,29.94,SW,235,3.0,7.0,87,0.00,,,0.18,Wunderground v.1.15,2013-08-15 20:45:00,
2013-08-15 16:49:00,82.0,77.7,29.93,SSW,207,3.0,8.0,87,0.00,,,0.18,Wunderground v.1.15,2013-08-15 20:49:00,
2013-08-15 16:50:00,82.0,77.7,29.93,SSW,205,3.0,8.0,87,0.00,,,0.18,Wunderground v.1.15,2013-08-15 20:50:00,
2013-08-15 16:55:00,82.2,77.6,29.93,SW,219,5.0,8.0,86,0.00,,,0.18,Wunderground v.1.15,2013-08-15 20:55:00,
2013-08-15 16:56:00,82.3,77.7,29.93,SSW,193,3.0,8.0,86,0.00,,,0.18,Wunderground v.1.15,2013-08-15 20:56:00,
2013-08-15 17:01:00,82.5,77.9,29.93,SW,218,7.0,7.0,86,0.00,,,0.18,Wunderground v.1.15,2013-08-15 21:01:00,
2013-08-15 17:02:00,82.5,77.9,29.93,WSW,239,8.0,13.0,86,0.00,,,0.18,Wunderground v.1.15,2013-08-15 21:02:00,
2013-08-15 17:03:00,82.5,77.9,29.93,SW,221,6.0,13.0,86,0.00,,,0.18,Wunderground v.1.15,2013-08-15 21:03:00,
2013-08-15 17:04:00,82.5,77.9,29.93,SW,226,6.0,13.0,86,0.00,,,0.18,Wunderground v.1.15,2013-08-15 21:04:00,
2013-08-15 17:06:00,82.4,77.8,29.93,SSW,205,8.0,13.0,86,0.00,,,0.18,Wunderground v.1.15,2013-08-15 21:06:00,
2013-08-15 17:07:00,82.4,77.8,29.93,SW,226,1.0,13.0,86,0.00,,,0.18,Wunderground v.1.15,2013-08-15 21:07:00,
2013-08-15 17:09:00,82.3,78.0,29.93,SSW,205,4.0,13.0,87,0.00,,,0.18,Wunderground v.1.15,2013-08-15 21:09:00,
2013-08-15 17:11:00,82.3,78.0,29.93,SSW,195,5.0,6.0,87,0.00,,,0.18,Wunderground v.1.15,2013-08-15 21:11:00,
2013-08-15 17:12:00,82.3,78.0,29.93,SW,236,6.0,7.0,87,0.00,,,0.18,Wunderground v.1.15,2013-08-15 21:12:00,
2013-08-15 17:14:00,82.3,78.0,29.93,SW,214,3.0,7.0,87,0.00,,,0.18,Wunderground v.1.15,2013-08-15 21:14:00,
2013-08-15 17:16:00,82.3,78.0,29.93,SSW,197,6.0,7.0,87,0.00,,,0.18,Wunderground v.1.15,2013-08-15 21:16:00,
2013-08-15 17:17:00,82.4,78.1,29.93,SW,233,2.0,7.0,87,0.00,,,0.18,Wunderground v.1.15,2013-08-15 21:17:00,
2013-08-15 17:19:00,82.4,78.1,29.94,West,264,2.0,7.0,87,0.00,,,0.18,Wunderground v.1.15,2013-08-15 21:19:00,
2013-08-15 17:21:00,82.5,78.2,29.93,West,259,3.0,4.0,87,0.00,,,0.18,Wunderground v.1.15,2013-08-15 21:21:00,
2013-08-15 17:23:00,82.5,77.9,29.93,SSW,195,8.0,8.0,86,0.00,,,0.18,Wunderground v.1.15,2013-08-15 21:23:00,
2013-08-15 17:26:00,82.5,77.5,29.94,SSW,197,6.0,11.0,85,0.00,,,0.18,Wunderground v.1.15,2013-08-15 21:26:00,
2013-08-15 17:27:00,82.5,77.5,29.93,WSW,239,7.0,11.0,85,0.00,,,0.18,Wunderground v.1.15,2013-08-15 21:27:00,
2013-08-15 17:28:00,82.4,77.4,29.93,SSW,212,7.0,11.0,85,0.00,,,0.18,Wunderground v.1.15,2013-08-15 21:28:00,
2013-08-15 17:31:00,82.3,77.3,29.94,SSW,203,3.0,10.0,85,0.00,,,0.18,Wunderground v.1.15,2013-08-15 21:31:00,
2013-08-15 17:33:00,82.3,77.3,29.93,WSW,245,7.0,10.0,85,0.00,,,0.18,Wunderground v.1.15,2013-08-15 21:33:00,
2013-08-15 17:36:00,82.3,77.7,29.93,WSW,239,7.0,10.0,86,0.00,,,0.18,Wunderground v.1.15,2013-08-15 21:36:00,
2013-08-15 17:37:00,82.3,77.3,29.93,WSW,243,2.0,10.0,85,0.00,,,0.18,Wunderground v.1.15,2013-08-15 21:37:00,
2013-08-15 17:41:00,82.3,77.3,29.93,West,269,5.0,7.0,85,0.00,,,0.18,Wunderground v.1.15,2013-08-15 21:41:00,
2013-08-15 17:42:00,82.3,77.3,29.93,West,279,5.0,8.0,85,0.00,,,0.18,Wunderground v.1.15,2013-08-15 21:42:00,
2013-08-15 17:43:00,82.4,77.4,29.93,WSW,255,8.0,8.0,85,0.00,,,0.18,Wunderground v.1.15,2013-08-15 21:43:00,
2013-08-15 17:46:00,82.5,77.5,29.93,WSW,257,3.0,10.0,85,0.00,,,0.18,Wunderground v.1.15,2013-08-15 21:46:00,
2013-08-15 17:47:00,82.5,77.5,29.93,SSW,205,3.0,10.0,85,0.00,,,0.18,Wunderground v.1.15,2013-08-15 21:47:00,
2013-08-15 17:48:00,82.5,77.9,29.93,SW,226,4.0,10.0,86,0.00,,,0.18,Wunderground v.1.15,2013-08-15 21:48:00,
2013-08-15 17:51:00,82.5,77.9,29.94,WSW,254,7.0,11.0,86,0.00,,,0.18,Wunderground v.1.15,2013-08-15 21:51:00,
2013-08-15 17:52:00,82.5,77.9,29.94,SW,224,7.0,11.0,86,0.00,,,0.18,Wunderground v.1.15,2013-08-15 21:52:00,
2013-08-15 17:53:00,82.5,77.9,29.94,SW,228,6.0,11.0,86,0.00,,,0.18,Wunderground v.1.15,2013-08-15 21:53:00,
2013-08-15 17:56:00,82.5,77.9,29.94,SW,229,10.0,11.0,86,0.00,,,0.18,Wunderground v.1.15,2013-08-15 21:56:00,
2013-08-15 17:57:00,82.5,77.9,29.94,SW,222,5.0,11.0,86,0.00,,,0.18,Wunderground v.1.15,2013-08-15 21:57:00,
2013-08-15 17:58:00,82.4,77.8,29.94,SW,225,9.0,12.0,86,0.00,,,0.18,Wunderground v.1.15,2013-08-15 21:58:00,
2013-08-15 18:02:00,82.2,77.6,29.94,West,281,2.0,7.0,86,0.00,,,0.18,Wunderground v.1.15,2013-08-15 22:02:00,
2013-08-15 18:03:00,82.1,77.5,29.94,SW,229,5.0,7.0,86,0.00,,,0.18,Wunderground v.1.15,2013-08-15 22:03:00,
2013-08-15 18:04:00,82.1,77.5,29.94,SW,222,2.0,7.0,86,0.00,,,0.18,Wunderground v.1.15,2013-08-15 22:04:00,
2013-08-15 18:05:00,82.1,77.5,29.94,WSW,239,3.0,7.0,86,0.00,,,0.18,Wunderground v.1.15,2013-08-15 22:05:00,
2013-08-15 18:07:00,82.0,77.7,29.94,SW,226,3.0,7.0,87,0.00,,,0.18,Wunderground v.1.15,2013-08-15 22:07:00,
2013-08-15 18:09:00,81.9,77.3,29.94,SW,221,7.0,11.0,86,0.00,,,0.18,Wunderground v.1.15,2013-08-15 22:09:00,
2013-08-15 18:10:00,81.9,77.3,29.94,SW,226,8.0,8.0,86,0.00,,,0.18,Wunderground v.1.15,2013-08-15 22:10:00,
2013-08-15 18:12:00,81.8,76.8,29.94,WSW,250,4.0,10.0,85,0.00,,,0.18,Wunderground v.1.15,2013-08-15 22:12:00,
2013-08-15 18:14:00,81.8,76.8,29.94,SSW,212,4.0,10.0,85,0.00,,,0.18,Wunderground v.1.15,2013-08-15 22:14:00,
2013-08-15 18:15:00,81.8,76.8,29.94,WSW,246,8.0,11.0,85,0.00,,,0.18,Wunderground v.1.15,2013-08-15 22:15:00,
2013-08-15 18:18:00,81.8,76.5,29.94,WSW,252,8.0,12.0,84,0.00,,,0.18,Wunderground v.1.15,2013-08-15 22:18:00,
2013-08-15 18:19:00,81.8,76.5,29.94,SSW,212,8.0,12.0,84,0.00,,,0.18,Wunderground v.1.15,2013-08-15 22:19:00,
2013-08-15 18:20:00,81.8,76.5,29.94,SSW,211,5.0,7.0,84,0.00,,,0.18,Wunderground v.1.15,2013-08-15 22:20:00,
2013-08-15 18:21:00,81.8,76.5,29.94,SSW,199,5.0,7.0,84,0.00,,,0.18,Wunderground v.1.15,2013-08-15 22:21:00,
2013-08-15 18:23:00,81.9,76.6,29.94,SW,228,6.0,8.0,84,0.00,,,0.18,Wunderground v.1.15,2013-08-15 22:23:00,
2013-08-15 18:24:00,81.9,76.6,29.94,SW,232,6.0,10.0,84,0.00,,,0.18,Wunderground v.1.15,2013-08-15 22:24:00,
2013-08-15 18:25:00,81.9,76.6,29.94,West,262,3.0,10.0,84,0.00,,,0.18,Wunderground v.1.15,2013-08-15 22:25:00,
2013-08-15 18:26:00,81.9,76.6,29.94,SW,233,10.0,10.0,84,0.00,,,0.18,Wunderground v.1.15,2013-08-15 22:26:00,
2013-08-15 18:28:00,82.0,76.7,29.94,WSW,245,5.0,10.0,84,0.00,,,0.18,Wunderground v.1.15,2013-08-15 22:28:00,
2013-08-15 18:29:00,81.9,76.6,29.94,SW,221,6.0,11.0,84,0.00,,,0.18,Wunderground v.1.15,2013-08-15 22:29:00,
2013-08-15 18:30:00,82.0,76.7,29.94,SW,235,4.0,11.0,84,0.00,,,0.18,Wunderground v.1.15,2013-08-15 22:30:00,
2013-08-15 18:31:00,82.0,76.7,29.94,SW,226,6.0,7.0,84,0.00,,,0.18,Wunderground v.1.15,2013-08-15 22:31:00,
2013-08-15 18:32:00,82.0,76.7,29.94,SSW,203,8.0,8.0,84,0.00,,,0.18,Wunderground v.1.15,2013-08-15 22:32:00,
2013-08-15 18:34:00,82.0,76.7,29.94,WSW,242,3.0,12.0,84,0.00,,,0.18,Wunderground v.1.15,2013-08-15 22:34:00,
2013-08-15 18:35:00,82.0,76.7,29.94,WSW,253,4.0,12.0,84,0.00,,,0.18,Wunderground v.1.15,2013-08-15 22:35:00,
2013-08-15 18:36:00,82.0,76.7,29.94,SW,222,8.0,12.0,84,0.00,,,0.18,Wunderground v.1.15,2013-08-15 22:36:00,
2013-08-15 18:37:00,82.0,76.7,29.94,WSW,242,9.0,12.0,84,0.00,,,0.18,Wunderground v.1.15,2013-08-15 22:37:00,
2013-08-15 18:39:00,82.0,76.7,29.95,WSW,253,2.0,12.0,84,0.00,,,0.18,Wunderground v.1.15,2013-08-15 22:39:00,
2013-08-15 18:41:00,82.0,76.7,29.95,SW,236,6.0,7.0,84,0.00,,,0.18,Wunderground v.1.15,2013-08-15 22:41:00,
2013-08-15 18:42:00,82.0,76.7,29.95,WSW,245,9.0,11.0,84,0.00,,,0.18,Wunderground v.1.15,2013-08-15 22:42:00,
2013-08-15 18:45:00,82.1,76.8,29.95,SW,221,6.0,12.0,84,0.00,,,0.18,Wunderground v.1.15,2013-08-15 22:45:00,
2013-08-15 18:46:00,82.1,76.8,29.95,SW,228,8.0,12.0,84,0.00,,,0.18,Wunderground v.1.15,2013-08-15 22:46:00,
2013-08-15 18:47:00,82.1,76.8,29.95,WSW,238,2.0,12.0,84,0.00,,,0.18,Wunderground v.1.15,2013-08-15 22:47:00,
2013-08-15 18:50:00,82.0,76.7,29.95,WSW,238,8.0,8.0,84,0.00,,,0.18,Wunderground v.1.15,2013-08-15 22:50:00,
2013-08-15 18:51:00,82.0,76.7,29.95,SW,219,8.0,8.0,84,0.00,,,0.18,Wunderground v.1.15,2013-08-15 22:51:00,
2013-08-15 18:52:00,82.0,76.7,29.95,West,265,5.0,8.0,84,0.00,,,0.18,Wunderground v.1.15,2013-08-15 22:52:00,
2013-08-15 18:55:00,82.1,76.8,29.95,WSW,239,3.0,8.0,84,0.00,,,0.18,Wunderground v.1.15,2013-08-15 22:55:00,
2013-08-15 18:56:00,82.1,76.8,29.95,SW,214,2.0,8.0,84,0.00,,,0.18,Wunderground v.1.15,2013-08-15 22:56:00,
2013-08-15 18:57:00,82.1,76.8,29.95,SSW,203,2.0,8.0,84,0.00,,,0.18,Wunderground v.1.15,2013-08-15 22:57:00,
2013-08-15 19:02:00,82.1,76.8,29.95,SW,224,3.0,6.0,84,0.00,,,0.18,Wunderground v.1.15,2013-08-15 23:02:00,
2013-08-15 19:03:00,82.1,76.8,29.95,WSW,238,7.0,7.0,84,0.00,,,0.18,Wunderground v.1.15,2013-08-15 23:03:00,
2013-08-15 19:05:00,82.1,76.8,29.95,WSW,245,6.0,7.0,84,0.00,,,0.18,Wunderground v.1.15,2013-08-15 23:05:00,
2013-08-15 19:07:00,82.1,76.8,29.95,WSW,254,5.0,9.0,84,0.00,,,0.18,Wunderground v.1.15,2013-08-15 23:07:00,
2013-08-15 19:08:00,82.1,76.8,29.95,SW,236,3.0,9.0,84,0.00,,,0.18,Wunderground v.1.15,2013-08-15 23:08:00,
2013-08-15 19:11:00,82.1,76.8,29.95,West,263,3.0,5.0,84,0.00,,,0.18,Wunderground v.1.15,2013-08-15 23:11:00,
2013-08-15 19:12:00,82.1,76.8,29.95,WSW,242,5.0,7.0,84,0.00,,,0.18,Wunderground v.1.15,2013-08-15 23:12:00,
2013-08-15 19:13:00,82.1,76.8,29.95,WSW,249,5.0,7.0,84,0.00,,,0.18,Wunderground v.1.15,2013-08-15 23:13:00,
2013-08-15 19:14:00,82.1,76.8,29.95,SW,236,3.0,7.0,84,0.00,,,0.18,Wunderground v.1.15,2013-08-15 23:14:00,
2013-08-15 19:16:00,82.2,76.9,29.95,West,259,2.0,7.0,84,0.00,,,0.18,Wunderground v.1.15,2013-08-15 23:16:00,
2013-08-15 19:18:00,82.2,76.9,29.95,WSW,246,4.0,7.0,84,0.00,,,0.18,Wunderground v.1.15,2013-08-15 23:18:00,
2013-08-15 19:19:00,82.2,76.9,29.96,SW,214,1.0,7.0,84,0.00,,,0.18,Wunderground v.1.15,2013-08-15 23:19:00,
2013-08-15 19:21:00,82.2,76.9,29.96,WSW,252,3.0,6.0,84,0.00,,,0.18,Wunderground v.1.15,2013-08-15 23:21:00,
2013-08-15 19:23:00,82.2,76.9,29.96,SSW,208,4.0,7.0,84,0.00,,,0.18,Wunderground v.1.15,2013-08-15 23:23:00,
2013-08-15 19:24:00,82.2,76.9,29.96,WSW,253,5.0,7.0,84,0.00,,,0.18,Wunderground v.1.15,2013-08-15 23:24:00,
2013-08-15 19:26:00,82.2,76.9,29.96,WSW,241,3.0,7.0,84,0.00,,,0.18,Wunderground v.1.15,2013-08-15 23:26:00,
2013-08-15 19:29:00,82.3,77.0,29.96,West,263,3.0,7.0,84,0.00,,,0.18,Wunderground v.1.15,2013-08-15 23:29:00,
2013-08-15 19:32:00,82.2,76.9,29.96,SW,233,1.0,4.0,84,0.00,,,0.18,Wunderground v.1.15,2013-08-15 23:32:00,
2013-08-15 19:33:00,82.2,76.9,29.96,WSW,246,2.0,5.0,84,0.00,,,0.18,Wunderground v.1.15,2013-08-15 23:33:00,
2013-08-15 19:34:00,82.2,76.9,29.96,WSW,245,2.0,5.0,84,0.00,,,0.18,Wunderground v.1.15,2013-08-15 23:34:00,
2013-08-15 19:35:00,82.2,76.9,29.96,WSW,241,2.0,5.0,84,0.00,,,0.18,Wunderground v.1.15,2013-08-15 23:35:00,
2013-08-15 19:37:00,82.2,76.9,29.96,West,267,2.0,5.0,84,0.00,,,0.18,Wunderground v.1.15,2013-08-15 23:37:00,
2013-08-15 19:39:00,82.2,76.9,29.96,SW,229,4.0,6.0,84,0.00,,,0.18,Wunderground v.1.15,2013-08-15 23:39:00,
2013-08-15 19:40:00,82.2,76.9,29.96,SW,229,4.0,6.0,84,0.00,,,0.18,Wunderground v.1.15,2013-08-15 23:40:00,
2013-08-15 19:42:00,82.2,76.9,29.96,WSW,239,3.0,9.0,84,0.00,,,0.18,Wunderground v.1.15,2013-08-15 23:42:00,
2013-08-15 19:44:00,82.2,76.9,29.96,SSW,210,4.0,9.0,84,0.00,,,0.18,Wunderground v.1.15,2013-08-15 23:44:00,
2013-08-15 19:45:00,82.2,76.9,29.97,SW,236,2.0,9.0,84,0.00,,,0.18,Wunderground v.1.15,2013-08-15 23:45:00,
2013-08-15 19:48:00,82.2,76.9,29.97,SW,231,3.0,9.0,84,0.00,,,0.18,Wunderground v.1.15,2013-08-15 23:48:00,
2013-08-15 19:49:00,82.2,76.9,29.97,WSW,242,4.0,9.0,84,0.00,,,0.18,Wunderground v.1.15,2013-08-15 23:49:00,
2013-08-15 19:50:00,82.2,76.9,29.97,SW,217,4.0,4.0,84,0.00,,,0.18,Wunderground v.1.15,2013-08-15 23:50:00,
2013-08-15 19:53:00,82.2,76.9,29.97,West,277,1.0,4.0,84,0.00,,,0.18,Wunderground v.1.15,2013-08-15 23:53:00,
2013-08-15 19:54:00,82.2,76.9,29.97,SW,221,1.0,4.0,84,0.00,,,0.18,Wunderground v.1.15,2013-08-15 23:54:00,
2013-08-15 19:55:00,82.2,76.9,29.97,WSW,252,2.0,4.0,84,0.00,,,0.18,Wunderground v.1.15,2013-08-15 23:55:00,
2013-08-15 19:58:00,82.2,76.9,29.97,SW,232,2.0,4.0,84,0.00,,,0.18,Wunderground v.1.15,2013-08-15 23:58:00,
2013-08-15 20:01:00,82.1,76.8,29.97,SSW,207,4.0,4.0,84,0.00,,,0.18,Wunderground v.1.15,2013-08-16 00:01:00,
2013-08-15 20:02:00,82.1,76.8,29.97,WSW,242,2.0,4.0,84,0.00,,,0.18,Wunderground v.1.15,2013-08-16 00:02:00,
2013-08-15 20:03:00,82.1,76.8,29.97,WSW,242,2.0,4.0,84,0.00,,,0.18,Wunderground v.1.15,2013-08-16 00:03:00,
2013-08-15 20:07:00,82.1,76.8,29.97,SW,226,4.0,6.0,84,0.00,,,0.18,Wunderground v.1.15,2013-08-16 00:07:00,
2013-08-15 20:08:00,82.1,76.8,29.97,West,260,4.0,6.0,84,0.00,,,0.18,Wunderground v.1.15,2013-08-16 00:08:00,
2013-08-15 20:12:00,82.1,76.8,29.97,WSW,246,3.0,6.0,84,0.00,,,0.18,Wunderground v.1.15,2013-08-16 00:12:00,
2013-08-15 20:13:00,82.1,76.8,29.98,SSW,197,3.0,6.0,84,0.00,,,0.18,Wunderground v.1.15,2013-08-16 00:13:00,
2013-08-15 20:14:00,82.1,76.4,29.98,SSW,205,2.0,6.0,83,0.00,,,0.18,Wunderground v.1.15,2013-08-16 00:14:00,
2013-08-15 20:17:00,82.1,76.8,29.98,SW,226,5.0,6.0,84,0.00,,,0.18,Wunderground v.1.15,2013-08-16 00:17:00,
2013-08-15 20:18:00,82.1,76.8,29.98,SSW,211,1.0,6.0,84,0.00,,,0.18,Wunderground v.1.15,2013-08-16 00:18:00,
2013-08-15 20:19:00,82.0,76.7,29.98,SW,224,2.0,6.0,84,0.00,,,0.18,Wunderground v.1.15,2013-08-16 00:19:00,
2013-08-15 20:23:00,82.0,76.7,29.98,SW,221,5.0,5.0,84,0.00,,,0.18,Wunderground v.1.15,2013-08-16 00:23:00,
2013-08-15 20:24:00,82.0,76.7,29.98,West,264,2.0,6.0,84,0.00,,,0.18,Wunderground v.1.15,2013-08-16 00:24:00,
2013-08-15 20:28:00,82.1,76.8,29.98,SW,233,3.0,6.0,84,0.00,,,0.18,Wunderground v.1.15,2013-08-16 00:28:00,
2013-08-15 20:29:00,82.1,76.8,29.98,WSW,247,3.0,6.0,84,0.00,,,0.18,Wunderground v.1.15,2013-08-16 00:29:00,
2013-08-15 20:33:00,82.1,76.8,29.98,WSW,241,2.0,3.0,84,0.00,,,0.18,Wunderground v.1.15,2013-08-16 00:33:00,
2013-08-15 20:34:00,82.1,76.8,29.98,SW,223,3.0,5.0,84,0.00,,,0.18,Wunderground v.1.15,2013-08-16 00:34:00,
2013-08-15 20:38:00,82.2,76.9,29.99,SSW,210,1.0,5.0,84,0.00,,,0.18,Wunderground v.1.15,2013-08-16 00:38:00,
2013-08-15 20:39:00,82.2,76.9,29.99,SW,236,1.0,5.0,84,0.00,,,0.18,Wunderground v.1.15,2013-08-16 00:39:00,
2013-08-15 20:40:00,82.2,76.9,29.99,SW,236,1.0,5.0,84,0.00,,,0.18,Wunderground v.1.15,2013-08-16 00:40:00,
2013-08-15 20:44:00,82.2,76.9,29.99,WSW,239,0.0,3.0,84,0.00,,,0.18,Wunderground v.1.15,2013-08-16 00:44:00,
2013-08-15 20:45:00,82.2,76.9,29.99,WSW,246,2.0,3.0,84,0.00,,,0.18,Wunderground v.1.15,2013-08-16 00:45:00,
2013-08-15 20:46:00,82.1,76.4,29.99,SW,218,2.0,3.0,83,0.00,,,0.18,Wunderground v.1.15,2013-08-16 00:46:00,
2013-08-15 20:49:00,82.2,76.5,29.99,SW,231,2.0,4.0,83,0.00,,,0.18,Wunderground v.1.15,2013-08-16 00:49:00,
2013-08-15 20:50:00,82.2,76.9,29.99,SW,231,1.0,4.0,84,0.00,,,0.18,Wunderground v.1.15,2013-08-16 00:50:00,
2013-08-15 20:51:00,82.2,76.5,29.99,SW,231,3.0,3.0,83,0.00,,,0.18,Wunderground v.1.15,2013-08-16 00:51:00,
2013-08-15 20:54:00,82.2,76.9,29.99,West,261,3.0,4.0,84,0.00,,,0.18,Wunderground v.1.15,2013-08-16 00:54:00,
2013-08-15 20:55:00,82.2,76.9,29.99,SSW,210,2.0,4.0,84,0.00,,,0.18,Wunderground v.1.15,2013-08-16 00:55:00,
2013-08-15 20:56:00,82.2,76.9,29.99,South,181,4.0,6.0,84,0.00,,,0.18,Wunderground v.1.15,2013-08-16 00:56:00,
2013-08-15 20:57:00,82.2,76.5,29.99,SSW,200,3.0,6.0,83,0.00,,,0.18,Wunderground v.1.15,2013-08-16 00:57:00,
2013-08-15 20:59:00,82.2,76.9,29.99,SSW,195,3.0,6.0,84,0.00,,,0.18,Wunderground v.1.15,2013-08-16 00:59:00,
2013-08-15 21:00:00,82.1,76.4,29.99,WSW,239,2.0,3.0,83,0.00,,,0.18,Wunderground v.1.15,2013-08-16 01:00:00,
2013-08-15 21:02:00,82.2,76.5,29.99,SW,229,1.0,4.0,83,0.00,,,0.18,Wunderground v.1.15,2013-08-16 01:02:00,
2013-08-15 21:04:00,82.1,76.8,29.99,SSW,205,2.0,4.0,84,0.00,,,0.18,Wunderground v.1.15,2013-08-16 01:04:00,
2013-08-15 21:05:00,82.1,76.4,29.99,SW,221,2.0,4.0,83,0.00,,,0.18,Wunderground v.1.15,2013-08-16 01:05:00,
2013-08-15 21:07:00,82.1,76.4,29.99,SSW,209,1.0,4.0,83,0.00,,,0.18,Wunderground v.1.15,2013-08-16 01:07:00,
2013-08-15 21:09:00,82.1,76.4,30.00,SW,235,2.0,4.0,83,0.00,,,0.18,Wunderground v.1.15,2013-08-16 01:09:00,
2013-08-15 21:11:00,82.1,76.4,30.00,SW,229,1.0,2.0,83,0.00,,,0.18,Wunderground v.1.15,2013-08-16 01:11:00,
2013-08-15 21:12:00,82.1,76.4,30.00,SW,232,2.0,4.0,83,0.00,,,0.18,Wunderground v.1.15,2013-08-16 01:12:00,
2013-08-15 21:13:00,82.1,76.4,30.00,SW,226,3.0,4.0,83,0.00,,,0.18,Wunderground v.1.15,2013-08-16 01:13:00,
2013-08-15 21:15:00,82.2,76.5,30.00,SSW,203,2.0,4.0,83,0.00,,,0.18,Wunderground v.1.15,2013-08-16 01:15:00,
2013-08-15 21:16:00,82.2,76.5,30.00,WSW,249,2.0,4.0,83,0.00,,,0.18,Wunderground v.1.15,2013-08-16 01:16:00,
2013-08-15 21:17:00,82.2,76.5,30.00,SW,228,1.0,4.0,83,0.00,,,0.18,Wunderground v.1.15,2013-08-16 01:17:00,
2013-08-15 21:18:00,82.2,76.5,30.00,WSW,249,1.0,4.0,83,0.00,,,0.18,Wunderground v.1.15,2013-08-16 01:18:00,
2013-08-15 21:21:00,82.2,76.5,30.00,SW,222,2.0,3.0,83,0.00,,,0.18,Wunderground v.1.15,2013-08-16 01:21:00,
2013-08-15 21:22:00,82.2,76.2,30.01,SW,224,1.0,3.0,82,0.00,,,0.18,Wunderground v.1.15,2013-08-16 01:22:00,
2013-08-15 21:25:00,82.2,76.2,30.01,SW,235,2.0,3.0,82,0.00,,,0.18,Wunderground v.1.15,2013-08-16 01:25:00,
2013-08-15 21:26:00,82.3,76.3,30.01,WSW,241,2.0,3.0,82,0.00,,,0.18,Wunderground v.1.15,2013-08-16 01:26:00,
2013-08-15 21:28:00,82.2,76.2,30.01,SW,236,2.0,3.0,82,0.00,,,0.18,Wunderground v.1.15,2013-08-16 01:28:00,
2013-08-15 21:31:00,82.3,75.9,30.01,West,270,1.0,3.0,81,0.00,,,0.18,Wunderground v.1.15,2013-08-16 01:31:00,
2013-08-15 21:38:00,82.3,75.9,30.01,WSW,249,2.0,4.0,81,0.00,,,0.18,Wunderground v.1.15,2013-08-16 01:38:00,
2013-08-15 21:39:00,82.3,75.9,30.01,SW,232,3.0,4.0,81,0.00,,,0.18,Wunderground v.1.15,2013-08-16 01:39:00,
2013-08-15 21:42:00,82.3,75.9,30.01,WSW,246,0.0,2.0,81,0.00,,,0.18,Wunderground v.1.15,2013-08-16 01:42:00,
2013-08-15 21:43:00,82.2,75.8,30.01,SW,229,1.0,3.0,81,0.00,,,0.18,Wunderground v.1.15,2013-08-16 01:43:00,
2013-08-15 21:44:00,82.2,75.8,30.01,SW,225,0.0,3.0,81,0.00,,,0.18,Wunderground v.1.15,2013-08-16 01:44:00,
2013-08-15 21:47:00,82.1,75.7,30.02,SW,222,2.0,4.0,81,0.00,,,0.18,Wunderground v.1.15,2013-08-16 01:47:00,
2013-08-15 21:48:00,82.1,75.7,30.02,SW,219,1.0,4.0,81,0.00,,,0.18,Wunderground v.1.15,2013-08-16 01:48:00,
2013-08-15 21:49:00,82.1,75.7,30.01,SW,224,1.0,4.0,81,0.00,,,0.18,Wunderground v.1.15,2013-08-16 01:49:00,
2013-08-15 21:52:00,81.9,75.5,30.01,SSW,205,0.0,2.0,81,0.00,,,0.18,Wunderground v.1.15,2013-08-16 01:52:00,
2013-08-15 21:53:00,81.9,75.9,30.02,SSW,208,2.0,2.0,82,0.00,,,0.18,Wunderground v.1.15,2013-08-16 01:53:00,
2013-08-15 21:54:00,81.9,75.5,30.01,SW,222,2.0,3.0,81,0.00,,,0.18,Wunderground v.1.15,2013-08-16 01:54:00,
2013-08-15 21:57:00,81.8,75.8,30.02,SW,221,0.0,3.0,82,0.00,,,0.18,Wunderground v.1.15,2013-08-16 01:57:00,
2013-08-15 21:59:00,81.7,75.7,30.02,SW,225,1.0,3.0,82,0.00,,,0.18,Wunderground v.1.15,2013-08-16 01:59:00,
2013-08-15 22:00:00,81.7,75.7,30.02,SW,221,1.0,1.0,82,0.00,,,0.18,Wunderground v.1.15,2013-08-16 02:00:00,
2013-08-15 22:02:00,81.6,75.6,30.02,SW,217,0.0,2.0,82,0.00,,,0.18,Wunderground v.1.15,2013-08-16 02:02:00,
2013-08-15 22:04:00,81.5,75.8,30.02,SW,214,0.0,2.0,83,0.00,,,0.18,Wunderground v.1.15,2013-08-16 02:04:00,
2013-08-15 22:05:00,81.5,75.8,30.02,SW,214,0.0,2.0,83,0.00,,,0.18,Wunderground v.1.15,2013-08-16 02:05:00,
2013-08-15 22:07:00,81.4,75.7,30.02,SW,214,0.0,2.0,83,0.00,,,0.18,Wunderground v.1.15,2013-08-16 02:07:00,
2013-08-15 22:09:00,81.3,76.0,30.02,SW,214,0.0,2.0,84,0.00,,,0.18,Wunderground v.1.15,2013-08-16 02:09:00,
2013-08-15 22:10:00,81.3,76.0,30.02,SW,214,0.0,2.0,84,0.00,,,0.18,Wunderground v.1.15,2013-08-16 02:10:00,
2013-08-15 22:11:00,81.2,75.9,30.02,SW,214,0.0,1.0,84,0.00,,,0.18,Wunderground v.1.15,2013-08-16 02:11:00,
2013-08-15 22:12:00,81.1,75.8,30.02,SW,226,0.0,1.0,84,0.00,,,0.18,Wunderground v.1.15,2013-08-16 02:12:00,
2013-08-15 22:14:00,81.0,76.1,30.02,SW,226,0.0,1.0,85,0.00,,,0.18,Wunderground v.1.15,2013-08-16 02:14:00,
2013-08-15 22:15:00,81.0,76.1,30.02,SW,226,0.0,1.0,85,0.00,,,0.18,Wunderground v.1.15,2013-08-16 02:15:00,
2013-08-15 22:16:00,80.9,76.0,30.02,SW,226,0.0,1.0,85,0.00,,,0.18,Wunderground v.1.15,2013-08-16 02:16:00,
2013-08-15 22:17:00,80.8,75.9,30.02,SW,226,1.0,1.0,85,0.00,,,0.18,Wunderground v.1.15,2013-08-16 02:17:00,
2013-08-15 22:20:00,80.7,75.8,30.02,SSW,212,0.0,2.0,85,0.00,,,0.18,Wunderground v.1.15,2013-08-16 02:20:00,
2013-08-15 22:21:00,80.7,75.8,30.02,SSW,212,0.0,1.0,85,0.00,,,0.18,Wunderground v.1.15,2013-08-16 02:21:00,
2013-08-15 22:23:00,80.6,75.7,30.03,SW,219,2.0,2.0,85,0.00,,,0.18,Wunderground v.1.15,2013-08-16 02:23:00,
2013-08-15 22:25:00,80.6,75.7,30.03,SW,218,1.0,2.0,85,0.00,,,0.18,Wunderground v.1.15,2013-08-16 02:25:00,
2013-08-15 22:26:00,80.5,75.6,30.03,SW,235,0.0,2.0,85,0.00,,,0.18,Wunderground v.1.15,2013-08-16 02:26:00,
2013-08-15 22:28:00,80.5,75.6,30.03,SSW,194,0.0,2.0,85,0.00,,,0.18,Wunderground v.1.15,2013-08-16 02:28:00,
2013-08-15 22:30:00,80.5,75.6,30.03,South,191,1.0,1.0,85,0.00,,,0.18,Wunderground v.1.15,2013-08-16 02:30:00,
2013-08-15 22:31:00,80.5,75.6,30.03,South,191,0.0,1.0,85,0.00,,,0.18,Wunderground v.1.15,2013-08-16 02:31:00,
2013-08-15 22:33:00,80.5,75.9,30.03,South,187,0.0,1.0,86,0.00,,,0.18,Wunderground v.1.15,2013-08-16 02:33:00,
2013-08-15 22:36:00,80.4,75.8,30.03,South,187,0.0,1.0,86,0.00,,,0.18,Wunderground v.1.15,2013-08-16 02:36:00,
2013-08-15 22:37:00,80.4,75.8,30.03,South,187,0.0,1.0,86,0.00,,,0.18,Wunderground v.1.15,2013-08-16 02:37:00,
2013-08-15 22:39:00,80.3,75.7,30.03,South,187,0.0,1.0,86,0.00,,,0.18,Wunderground v.1.15,2013-08-16 02:39:00,
2013-08-15 22:41:00,80.3,75.7,30.03,South,187,0.0,0.0,86,0.00,,,0.18,Wunderground v.1.15,2013-08-16 02:41:00,
2013-08-15 22:42:00,80.3,75.7,30.03,South,188,0.0,0.0,86,0.00,,,0.18,Wunderground v.1.15,2013-08-16 02:42:00,
2013-08-15 22:45:00,80.3,75.7,30.03,South,190,0.0,1.0,86,0.00,,,0.18,Wunderground v.1.15,2013-08-16 02:45:00,
2013-08-15 22:46:00,80.2,75.6,30.03,South,176,2.0,2.0,86,0.00,,,0.18,Wunderground v.1.15,2013-08-16 02:46:00,
2013-08-15 22:47:00,80.2,75.6,30.03,SSW,193,2.0,2.0,86,0.00,,,0.18,Wunderground v.1.15,2013-08-16 02:47:00,
2013-08-15 22:48:00,80.2,75.6,30.03,SSW,203,0.0,2.0,86,0.00,,,0.18,Wunderground v.1.15,2013-08-16 02:48:00,
2013-08-15 22:50:00,80.2,75.6,30.03,SSE,163,1.0,2.0,86,0.00,,,0.18,Wunderground v.1.15,2013-08-16 02:50:00,
2013-08-15 22:51:00,80.3,75.7,30.03,SSE,163,0.0,1.0,86,0.00,,,0.18,Wunderground v.1.15,2013-08-16 02:51:00,
2013-08-15 22:52:00,80.3,75.7,30.03,SSE,163,0.0,1.0,86,0.00,,,0.18,Wunderground v.1.15,2013-08-16 02:52:00,
2013-08-15 22:53:00,80.3,75.4,30.03,South,187,1.0,2.0,85,0.00,,,0.18,Wunderground v.1.15,2013-08-16 02:53:00,
2013-08-15 22:55:00,80.3,75.4,30.03,South,187,0.0,2.0,85,0.00,,,0.18,Wunderground v.1.15,2013-08-16 02:55:00,
2013-08-15 22:57:00,80.3,75.7,30.03,South,187,0.0,2.0,86,0.00,,,0.18,Wunderground v.1.15,2013-08-16 02:57:00,
2013-08-15 22:58:00,80.3,75.4,30.03,SSW,194,1.0,2.0,85,0.00,,,0.18,Wunderground v.1.15,2013-08-16 02:58:00,
2013-08-15 23:00:00,80.3,75.4,30.03,SSW,194,0.0,1.0,85,0.00,,,0.18,Wunderground v.1.15,2013-08-16 03:00:00,
2013-08-15 23:02:00,80.4,75.5,30.03,SSW,196,0.0,1.0,85,0.00,,,0.18,Wunderground v.1.15,2013-08-16 03:02:00,
2013-08-15 23:03:00,80.4,75.5,30.03,SSW,195,1.0,1.0,85,0.00,,,0.18,Wunderground v.1.15,2013-08-16 03:03:00,
2013-08-15 23:06:00,80.3,75.4,30.03,SSW,212,0.0,1.0,85,0.00,,,0.18,Wunderground v.1.15,2013-08-16 03:06:00,
2013-08-15 23:07:00,80.3,75.4,30.03,SW,219,0.0,1.0,85,0.00,,,0.18,Wunderground v.1.15,2013-08-16 03:07:00,
2013-08-15 23:08:00,80.3,75.4,30.03,SW,219,0.0,1.0,85,0.00,,,0.18,Wunderground v.1.15,2013-08-16 03:08:00,
2013-08-15 23:09:00,80.3,75.4,30.03,SW,220,0.0,1.0,85,0.00,,,0.18,Wunderground v.1.15,2013-08-16 03:09:00,
2013-08-15 23:11:00,80.3,75.4,30.03,SW,219,0.0,0.0,85,0.00,,,0.18,Wunderground v.1.15,2013-08-16 03:11:00,
2013-08-15 23:12:00,80.3,75.4,30.03,West,266,1.0,1.0,85,0.00,,,0.18,Wunderground v.1.15,2013-08-16 03:12:00,
2013-08-15 23:14:00,80.4,75.5,30.03,West,264,1.0,1.0,85,0.00,,,0.18,Wunderground v.1.15,2013-08-16 03:14:00,
2013-08-15 23:16:00,80.5,75.6,30.03,West,264,0.0,1.0,85,0.00,,,0.18,Wunderground v.1.15,2013-08-16 03:16:00,
2013-08-15 23:17:00,80.5,75.6,30.03,West,264,0.0,1.0,85,0.00,,,0.18,Wunderground v.1.15,2013-08-16 03:17:00,
2013-08-15 23:19:00,80.6,75.7,30.03,West,264,0.0,1.0,85,0.00,,,0.18,Wunderground v.1.15,2013-08-16 03:19:00,
2013-08-15 23:21:00,80.5,75.6,30.03,West,264,0.0,0.0,85,0.00,,,0.18,Wunderground v.1.15,2013-08-16 03:21:00,
2013-08-15 23:22:00,80.4,75.5,30.03,West,264,0.0,0.0,85,0.00,,,0.18,Wunderground v.1.15,2013-08-16 03:22:00,
2013-08-15 23:24:00,80.4,75.5,30.03,West,264,0.0,0.0,85,0.00,,,0.18,Wunderground v.1.15,2013-08-16 03:24:00,
2013-08-15 23:25:00,80.4,75.8,30.03,West,265,0.0,1.0,86,0.00,,,0.18,Wunderground v.1.15,2013-08-16 03:25:00,
2013-08-15 23:27:00,80.3,75.7,30.03,West,264,0.0,1.0,86,0.00,,,0.18,Wunderground v.1.15,2013-08-16 03:27:00,
2013-08-15 23:29:00,80.1,75.5,30.03,West,264,0.0,1.0,86,0.00,,,0.18,Wunderground v.1.15,2013-08-16 03:29:00,
2013-08-15 23:30:00,80.1,75.5,30.03,West,264,0.0,0.0,86,0.00,,,0.18,Wunderground v.1.15,2013-08-16 03:30:00,
2013-08-15 23:32:00,80.0,75.4,30.02,West,265,0.0,0.0,86,0.00,,,0.18,Wunderground v.1.15,2013-08-16 03:32:00,
2013-08-15 23:35:00,79.9,75.3,30.02,West,265,0.0,1.0,86,0.00,,,0.18,Wunderground v.1.15,2013-08-16 03:35:00,
2013-08-15 23:36:00,79.9,75.3,30.02,West,264,0.0,1.0,86,0.00,,,0.18,Wunderground v.1.15,2013-08-16 03:36:00,
2013-08-15 23:37:00,79.9,75.3,30.02,West,264,0.0,1.0,86,0.00,,,0.18,Wunderground v.1.15,2013-08-16 03:37:00,
2013-08-15 23:38:00,80.0,75.4,30.02,West,264,0.0,1.0,86,0.00,,,0.18,Wunderground v.1.15,2013-08-16 03:38:00,
2013-08-15 23:40:00,79.9,75.7,30.02,West,264,0.0,1.0,87,0.00,,,0.18,Wunderground v.1.15,2013-08-16 03:40:00,
2013-08-15 23:41:00,79.8,75.2,30.02,West,264,0.0,1.0,86,0.00,,,0.18,Wunderground v.1.15,2013-08-16 03:41:00,
2013-08-15 23:42:00,79.8,75.2,30.02,West,264,0.0,1.0,86,0.00,,,0.18,Wunderground v.1.15,2013-08-16 03:42:00,
2013-08-15 23:43:00,79.8,75.2,30.02,West,264,0.0,1.0,86,0.00,,,0.18,Wunderground v.1.15,2013-08-16 03:43:00,
2013-08-15 23:45:00,79.7,75.1,30.02,West,264,0.0,1.0,86,0.00,,,0.18,Wunderground v.1.15,2013-08-16 03:45:00,
2013-08-15 23:46:00,79.8,75.2,30.02,West,264,0.0,1.0,86,0.00,,,0.18,Wunderground v.1.15,2013-08-16 03:46:00,
2013-08-15 23:47:00,79.7,75.1,30.02,West,264,0.0,1.0,86,0.00,,,0.18,Wunderground v.1.15,2013-08-16 03:47:00,
2013-08-15 23:48:00,79.8,75.2,30.02,West,264,0.0,1.0,86,0.00,,,0.18,Wunderground v.1.15,2013-08-16 03:48:00,
2013-08-15 23:49:00,79.8,75.2,30.02,West,264,0.0,1.0,86,0.00,,,0.18,Wunderground v.1.15,2013-08-16 03:49:00,
2013-08-15 23:50:00,79.8,75.2,30.02,West,264,0.0,1.0,86,0.00,,,0.18,Wunderground v.1.15,2013-08-16 03:50:00,
2013-08-15 23:51:00,79.8,75.2,30.02,West,264,0.0,0.0,86,0.00,,,0.18,Wunderground v.1.15,2013-08-16 03:51:00,
2013-08-15 23:52:00,79.9,75.3,30.02,West,264,0.0,0.0,86,0.00,,,0.18,Wunderground v.1.15,2013-08-16 03:52:00,
2013-08-15 23:54:00,79.9,75.7,30.02,West,264,0.0,0.0,87,0.00,,,0.18,Wunderground v.1.15,2013-08-16 03:54:00,
2013-08-15 23:55:00,79.9,75.3,30.02,West,264,0.0,0.0,86,0.00,,,0.18,Wunderground v.1.15,2013-08-16 03:55:00,
2013-08-15 23:56:00,79.9,75.7,30.02,West,264,1.0,1.0,87,0.00,,,0.18,Wunderground v.1.15,2013-08-16 03:56:00,
2013-08-15 23:58:00,79.9,75.7,30.01,West,264,0.0,1.0,87,0.00,,,0.18,Wunderground v.1.15,2013-08-16 03:58:00,
2013-08-15 23:59:00,79.8,75.6,30.01,West,264,0.0,1.0,87,0.00,,,0.18,Wunderground v.1.15,2013-08-16 03:59:00,